GFSNE_850_rhum_000.txt.gz
RH
86 88 92 92 93 94 95 92 96 94 89 86 82 86 74 72 76 83 92 80 87 90 81 72 67 63 59 55 49 47 35 30 81 91 92 98 99 98
82 92 90 91 95 94 92 90 88 91 97 88 88 90 79 79 82 90 89 84 92 79 71 70 64 58 48 37 17 23 62 95 93 97 100 100 96 96
69 82 90 90 90 91 91 90 94 94 97 90 89 96 90 90 87 98 84 92 86 67 72 66 56 42 15 19 23 66 94 96 96 94 92 89 94 95
55 73 85 93 92 93 94 90 88 88 91 89 86 97 93 93 99 91 90 93 73 71 67 56 29 15 18 22 32 42 58 85 97 96 91 88 89 91
56 61 64 83 91 91 94 92 87 84 83 86 96 93 94 99 94 89 95 76 71 67 55 24 14 16 20 25 30 32 34 39 57 86 94 92 94 96
49 59 65 79 78 89 94 90 88 87 87 100 99 98 100 99 92 96 81 69 68 53 27 14 17 20 22 24 27 30 34 39 71 95 94 96 100 99
67 47 60 65 77 87 93 87 88 92 92 98 95 98 99 99 90 84 65 69 53 29 13 17 25 24 25 28 30 33 37 42 100 97 97 97 99 98
91 68 62 59 69 87 94 95 75 82 88 84 90 88 97 94 89 62 59 51 33 19 15 15 32 26 27 34 34 32 36 44 85 98 99 100 95 97
56 99 99 89 67 66 95 89 74 86 76 92 90 90 98 92 59 50 46 34 15 21 16 18 40 34 48 42 27 33 36 37 70 85 83 92 97 97
82 79 100 99 81 67 74 86 71 71 78 80 94 95 93 63 46 42 36 13 14 17 19 25 65 70 72 50 32 29 24 27 29 22 28 57 81 97
92 43 70 98 77 67 80 75 80 95 100 97 100 99 80 50 41 36 16 14 18 37 28 34 54 76 37 30 41 21 17 18 21 27 40 42 50 52
67 79 70 88 99 85 96 77 100 98 98 96 96 96 64 45 42 20 18 13 16 40 57 50 77 66 39 50 34 42 45 26 32 40 41 59 64 64
74 76 80 96 100 99 98 89 99 95 100 99 95 85 61 45 25 26 18 12 18 27 58 47 43 57 66 77 35 36 29 32 44 49 52 65 62 64
96 99 99 98 100 100 100 100 100 100 100 99 87 64 48 35 25 31 13 16 23 30 41 40 46 43 48 56 68 45 51 32 42 56 60 71 68 69
80 96 100 100 100 100 100 100 96 100 100 97 77 58 41 28 39 20 14 22 29 33 38 42 48 49 49 38 49 33 56 38 42 54 73 79 80 77
72 94 100 100 100 100 100 99 100 100 100 94 64 58 27 46 36 14 20 28 33 38 38 43 46 43 35 36 36 19 30 66 52 73 78 78 78 85
93 99 100 100 99 100 100 100 100 98 96 76 68 54 38 63 25 20 26 32 37 47 50 51 41 29 24 20 17 21 30 52 75 81 84 79 76 87
99 100 100 100 100 99 100 100 100 99 85 76 70 39 70 44 45 24 29 35 40 42 46 42 26 23 16 20 28 28 34 64 78 78 77 88 71 78
100 100 100 100 100 100 100 100 99 92 83 79 54 54 68 79 28 28 32 36 38 41 44 29 25 26 23 61 39 32 55 68 74 69 77 79 80 70
100 100 100 100 100 100 100 100 99 85 84 65 47 79 90 66 26 29 34 37 37 42 32 23 25 20 22 29 29 50 67 69 78 77 73 80 84 82
100 100 100 100 100 100 100 100 98 92 87 71 60 94 94 26 27 30 34 35 36 34 23 25 20 18 18 26 48 62 59 74 81 84 84 92 94 94
99 100 100 100 100 100 99 99 99 98 86 59 91 97 46 26 28 31 33 34 35 23 22 18 16 18 26 46 54 69 72 71 75 81 88 97 98 100
99 99 99 100 100 100 99 99 100 97 78 90 100 88 25 26 30 31 33 35 26 21 20 15 18 30 40 50 71 78 81 78 74 74 87 98 97 97

GFSNE_850_rhum_003.txt.gz
RH
71 61 69 79 94 93 98 100 99 97 88 87 86 84 78 80 72 72 79 82 85 95 88 89 95 76 67 61 55 43 29 14 16 51 93 91 94 100
86 80 71 59 78 95 98 100 100 99 98 91 87 86 85 82 83 83 88 89 94 93 84 91 89 66 65 52 36 15 14 16 60 91 93 91 96 95
99 99 92 77 87 93 98 100 100 100 100 99 97 90 82 87 86 86 90 94 92 80 81 92 73 64 57 30 13 13 15 27 78 95 96 93 91 86
97 100 96 88 94 93 100 100 100 100 100 100 100 100 88 85 91 96 98 98 92 86 85 86 66 59 30 13 13 15 20 49 34 80 96 95 92 92
97 99 98 100 100 98 100 98 100 100 99 100 100 100 98 90 88 96 95 96 96 87 91 62 59 36 13 11 15 17 23 28 28 33 86 96 95 95
96 88 98 100 100 100 100 98 99 100 100 100 100 98 95 93 94 99 99 99 91 92 69 62 42 15 10 13 17 21 25 28 31 60 98 95 92 100
94 97 99 96 99 100 100 98 67 89 100 100 100 100 90 100 99 99 100 100 93 77 64 48 19 13 10 15 20 27 25 29 34 89 99 96 95 99
70 90 100 85 99 100 100 99 100 84 78 89 100 93 72 87 100 100 100 96 82 59 47 24 14 11 17 24 30 41 25 27 34 98 96 97 97 96
56 63 95 100 100 99 100 100 100 100 84 92 78 72 77 72 90 95 98 88 61 48 29 15 11 15 29 33 37 27 25 28 28 91 90 72 95 95
62 71 93 100 100 100 99 100 98 100 100 100 86 85 70 75 96 95 90 60 46 30 16 14 16 29 45 45 31 29 24 17 14 15 18 27 52 47
67 88 84 99 98 99 99 99 99 100 100 100 100 100 100 100 100 93 61 41 28 20 15 14 18 30 33 25 26 29 21 15 20 20 30 39 42 47
79 73 75 93 100 98 99 100 99 99 100 100 100 100 100 100 91 72 51 41 19 16 28 30 31 37 24 38 38 30 33 36 45 30 37 45 43 58
98 86 80 86 98 99 99 100 78 89 100 100 100 100 100 90 82 65 51 34 14 22 29 28 29 32 34 34 23 23 32 36 33 31 41 56 59 96
100 90 81 79 93 98 100 100 100 100 100 100 100 100 100 95 85 38 37 16 19 26 23 22 33 34 37 32 28 26 27 20 28 36 46 56 68 81
88 98 89 89 93 97 98 100 100 100 100 100 97 99 100 81 42 75 60 14 21 25 22 26 33 36 35 35 28 19 18 18 29 48 64 65 65 71
89 96 99 96 100 87 99 100 100 100 100 100 100 99 84 66 60 75 25 28 28 22 27 33 35 34 29 24 34 19 19 42 34 50 63 63 68 72
100 98 98 98 100 100 100 100 100 100 100 100 100 97 70 64 94 56 68 38 25 27 33 35 34 29 23 25 19 23 29 30 40 58 68 70 68 74
98 100 100 100 100 100 100 100 100 100 100 100 100 84 73 94 96 72 58 30 28 33 38 39 38 25 20 16 29 32 33 47 59 67 73 80 69 75
99 100 100 100 100 100 100 100 100 100 100 97 86 73 93 99 93 93 40 29 32 38 37 34 22 24 22 27 26 37 50 57 65 72 81 88 86 75
99 99 99 99 100 100 100 100 99 99 100 97 83 90 98 98 96 49 30 31 36 35 34 22 23 18 22 24 27 43 55 69 80 88 87 92 88 82
100 98 99 99 99 100 100 100 99 98 98 98 98 100 99 97 63 32 31 34 33 31 22 23 19 19 19 33 45 53 64 80 96 100 100 100 94 80
100 99 98 99 99 99 99 99 99 98 98 98 98 99 98 84 43 30 32 31 29 21 22 16 16 23 38 41 55 70 81 83 91 93 98 99 99 98
99 100 98 98 98 98 98 98 98 98 99 100 98 98 96 78 31 30 31 28 21 21 16 15 25 37 40 65 78 83 87 94 95 90 97 97 97 98

GFSNE_850_rhum_006.txt.gz
RH
99 99 99 100 100 100 100 100 99 95 93 88 93 88 82 78 81 80 77 72 73 75 78 85 90 92 87 89 71 64 55 40 16 13 19 79 93 92
97 98 98 100 100 100 100 100 100 100 98 95 94 92 87 83 86 88 83 78 78 81 85 90 98 97 90 90 66 60 41 14 11 12 22 90 95 92
94 94 95 97 99 100 100 99 99 100 100 98 99 98 97 91 89 92 90 89 89 89 91 93 98 90 90 82 61 46 17 9 10 14 16 85 96 94
77 89 86 86 90 96 99 100 100 100 100 100 100 100 99 99 98 96 95 98 97 94 96 97 89 88 91 68 52 23 10 8 13 15 19 42 95 94
81 82 76 84 91 90 92 97 100 100 97 98 98 100 99 98 99 100 100 100 100 100 100 97 93 91 87 56 29 12 7 11 16 21 24 28 92 96
78 72 66 63 71 86 97 100 95 95 100 98 100 100 100 98 100 100 93 100 99 100 100 96 98 93 62 40 18 7 10 17 20 23 27 89 96 93
83 80 73 65 67 74 95 96 98 100 99 100 100 100 100 100 95 97 96 100 99 100 100 100 94 76 47 23 10 8 16 18 20 26 69 97 95 93
85 79 77 72 62 65 86 82 97 98 100 97 100 98 99 88 79 100 100 100 100 99 100 98 87 55 25 15 10 15 19 21 22 25 38 96 93 95
91 90 83 97 96 86 74 79 88 93 96 99 100 100 100 94 75 95 99 100 92 99 97 93 55 28 17 16 16 21 24 26 23 23 18 87 95 96
84 94 96 98 99 100 93 74 90 93 96 96 93 100 99 99 86 97 94 100 99 100 92 54 34 24 22 19 20 23 31 37 24 15 14 18 67 96
98 100 100 95 83 90 100 97 76 96 99 92 97 95 95 100 100 100 100 100 100 98 67 46 23 24 25 21 25 17 18 20 20 18 21 50 71 83
35 32 57 73 82 87 99 100 85 87 100 99 100 100 98 100 100 100 98 100 100 83 65 45 30 36 24 21 18 16 17 18 22 23 46 64 88 83
28 32 43 69 78 83 88 91 89 88 99 100 100 90 96 100 100 100 100 100 91 81 56 43 43 24 24 22 18 20 18 21 21 21 23 31 44 79
20 30 62 85 80 82 88 87 97 99 99 100 100 100 100 99 100 100 99 95 85 60 42 47 29 22 27 21 19 18 18 19 19 21 30 43 53 68
21 35 80 97 98 94 94 98 99 100 100 100 100 100 100 100 99 99 98 68 52 84 62 30 20 29 26 20 18 15 13 13 21 33 40 50 61 65
35 58 100 100 100 100 99 98 100 100 100 100 100 100 100 100 100 91 76 98 95 89 47 22 28 29 22 20 17 11 15 24 29 32 42 56 62 67
93 99 100 96 92 97 98 100 100 100 100 100 100 100 100 99 97 94 99 98 97 55 24 28 30 26 23 16 12 17 30 34 36 51 60 64 66 68
96 99 100 100 99 99 99 100 100 100 100 100 99 99 99 98 100 99 98 98 50 24 28 29 26 21 15 13 24 31 37 45 53 60 66 73 71 68
100 99 100 100 99 99 99 99 99 99 99 99 98 98 98 97 98 98 98 58 26 30 31 31 25 18 18 17 23 35 44 54 67 74 80 83 81 76
100 100 100 100 98 98 98 98 99 98 98 98 98 97 97 97 97 98 74 26 28 32 28 22 19 22 20 24 31 44 54 72 88 97 91 89 87 78
100 100 100 100 98 98 98 98 98 98 98 98 97 98 98 97 98 73 28 28 33 27 20 19 20 17 22 36 47 64 72 90 96 98 98 99 92 84
100 100 100 100 97 98 97 97 98 97 97 97 98 99 98 98 82 30 27 30 25 19 20 16 17 30 40 60 74 83 85 82 90 96 97 100 99 99
99 100 100 100 98 97 97 97 97 97 97 97 97 97 98 94 35 29 32 23 19 20 14 17 34 40 61 82 90 95 98 92 87 89 95 96 95 96

GFSNE_850_rhum_009.txt.gz
RH
89 94 99 96 96 95 98 100 100 98 89 84 88 90 89 87 81 83 84 80 78 77 80 78 75 79 77 80 87 92 86 89 68 59 35 12 25 80
59 66 80 90 96 97 94 97 95 98 98 94 88 92 96 93 91 90 91 88 85 85 85 83 82 85 81 88 94 95 89 82 65 42 12 11 44 95
68 68 68 69 79 85 84 91 100 100 100 91 96 95 99 98 89 88 89 89 90 91 89 93 94 94 95 92 98 96 92 69 54 17 9 12 60 95
87 84 82 77 75 73 77 85 100 98 100 100 98 99 99 99 88 90 86 90 91 93 92 80 96 100 100 93 100 92 86 64 23 10 9 14 17 67
77 82 84 83 80 74 72 74 77 81 98 100 99 100 99 91 95 96 93 90 92 98 99 91 96 100 99 100 97 93 69 35 14 9 13 15 16 22
91 91 90 92 94 87 91 94 92 88 99 100 100 100 100 99 99 98 98 98 95 98 90 98 82 96 100 100 97 82 51 20 9 12 16 16 18 27
85 82 80 83 83 86 95 97 99 93 99 100 100 98 99 100 98 98 98 99 99 100 99 100 100 98 99 98 97 85 23 12 10 15 16 19 32 86
50 38 47 67 92 98 97 95 98 100 100 100 100 100 99 97 100 97 98 100 99 98 100 98 99 98 100 100 96 42 16 12 13 18 16 20 43 96
27 39 48 80 59 56 81 85 87 90 98 99 100 99 98 98 99 100 100 99 100 95 99 100 100 100 100 100 78 34 18 16 21 19 19 25 48 96
18 24 26 18 29 36 78 96 86 87 89 97 100 95 95 98 100 99 98 100 100 99 100 100 100 100 100 87 58 31 21 27 23 26 32 17 47 68
63 68 31 16 16 31 90 100 99 87 81 82 86 84 75 95 100 100 99 100 100 99 100 100 100 100 89 89 42 26 28 30 36 67 29 28 43 65
94 67 36 23 19 34 98 100 100 98 94 96 87 84 77 75 93 100 100 100 100 100 99 99 99 89 80 72 45 27 26 21 32 31 37 65 88 75
96 91 42 22 24 65 98 100 100 100 99 100 99 97 87 97 91 99 100 100 100 100 100 98 98 97 78 24 25 22 20 24 24 23 22 26 38 50
98 94 57 34 70 100 100 100 100 100 100 100 100 99 100 100 100 100 100 100 100 100 98 100 96 96 79 24 23 21 20 21 21 18 19 21 26 38
97 95 90 98 99 99 99 100 100 100 100 100 100 100 100 100 100 100 100 100 100 100 100 100 98 47 23 24 19 18 19 18 16 17 22 35 42 50
92 92 100 100 98 100 98 99 98 99 100 100 100 100 100 100 100 100 100 100 100 98 98 92 35 26 26 22 20 15 14 16 28 32 32 35 44 54
95 96 100 98 100 100 100 96 92 98 99 99 99 99 100 99 99 99 99 99 98 98 94 37 30 30 25 20 14 13 22 30 34 36 45 53 56 61
95 100 100 100 100 100 100 96 95 98 99 98 99 99 99 99 98 98 99 98 98 87 37 34 32 28 19 14 18 27 32 39 47 52 57 64 64 63
100 100 100 100 100 100 99 98 97 98 98 98 98 98 98 98 98 98 98 97 90 38 37 34 26 17 16 16 23 36 43 48 55 64 72 77 82 78
100 98 96 96 100 99 98 97 96 97 98 97 97 97 97 98 97 97 97 92 35 35 33 25 19 17 17 23 35 46 57 67 80 88 89 88 84 80
100 92 94 96 99 98 98 96 97 97 97 96 97 97 97 97 97 98 85 35 37 32 27 20 18 17 26 40 53 69 79 94 94 87 86 97 94 88
99 93 92 96 97 98 97 97 96 96 96 96 97 96 97 97 98 80 32 32 32 22 19 15 18 34 43 65 82 90 86 87 92 93 97 100 100 97
94 93 96 80 96 97 97 96 96 96 96 96 96 97 97 97 76 36 34 30 20 20 14 22 38 54 80 94 95 88 89 88 88 94 100 100 100 100

GFSNE_850_rhum_012.txt.gz
RH
65 66 73 74 70 69 77 89 99 99 96 93 97 92 82 65 58 60 69 60 55 77 79 81 84 80 78 81 82 81 92 96 90 85 87 87 70 53
73 76 76 76 78 80 80 80 83 100 99 97 95 94 99 96 89 85 84 84 82 77 77 82 86 86 84 82 86 85 85 94 94 91 90 89 63 38
82 80 79 79 80 80 81 82 87 92 99 95 98 93 91 92 96 95 95 93 92 91 83 79 81 91 88 88 92 92 91 99 98 94 93 85 56 19
72 84 91 90 87 86 88 92 92 90 97 100 99 99 94 89 90 90 93 94 92 83 80 87 80 92 94 96 99 100 99 100 98 99 92 71 29 26
84 86 86 79 71 52 72 85 83 90 94 100 95 91 95 97 92 92 90 100 99 92 88 78 84 85 98 94 99 100 99 98 100 99 85 48 14 40
74 69 69 41 41 43 82 94 98 100 100 100 100 99 96 97 100 98 97 93 98 97 91 88 87 86 99 100 98 100 100 100 100 97 67 42 15 23
58 56 42 20 24 84 77 35 62 97 91 97 100 100 100 98 98 99 99 98 87 84 93 74 86 100 100 100 100 100 100 100 100 92 53 15 21 25
49 42 31 26 43 64 19 19 32 92 99 100 98 100 99 100 100 97 100 100 100 97 78 89 100 99 97 100 97 94 100 100 98 93 43 19 87 94
38 27 19 26 88 66 26 21 27 52 98 100 99 100 99 100 100 100 96 100 99 97 99 99 100 100 100 100 100 100 99 100 89 70 34 87 88 74
53 32 37 80 87 70 46 59 33 45 99 99 99 100 100 98 100 100 100 100 99 99 100 100 99 99 99 100 100 100 99 94 94 81 87 98 69 66
76 79 93 94 86 95 97 99 96 90 96 100 100 100 100 100 100 100 100 100 100 99 100 99 100 100 100 100 100 100 100 100 94 95 98 97 92 61
94 94 88 88 94 93 100 100 100 98 99 97 100 99 100 99 99 100 100 100 100 100 99 100 100 100 100 100 100 99 99 97 94 97 98 98 98 77
93 93 85 92 95 98 100 100 100 100 97 100 99 99 100 100 100 100 100 100 100 100 100 100 100 100 100 98 98 98 97 90 98 98 96 98 96 91
97 91 94 96 98 100 100 100 100 100 99 99 100 100 100 100 100 100 100 100 100 100 100 100 99 99 99 98 96 97 88 53 49 58 58 54 52 85
96 96 93 99 100 99 99 100 99 98 98 99 100 99 99 99 99 99 100 100 100 100 100 99 99 100 100 98 65 35 42 40 38 34 26 26 23 23
94 93 97 100 100 97 89 99 100 98 98 98 98 96 99 99 98 98 99 99 99 98 98 99 98 98 82 27 22 21 26 19 22 20 21 21 24 32
89 95 96 92 96 92 99 100 100 99 97 98 97 97 98 98 98 98 98 98 98 97 97 97 81 33 30 25 20 18 17 16 20 28 32 35 35 37
93 96 96 99 100 100 100 100 100 98 98 98 97 97 97 97 97 97 98 98 98 97 92 40 32 28 24 19 14 13 17 28 36 39 41 45 48 52
93 93 100 100 100 100 100 100 96 97 97 97 96 96 97 97 97 97 96 97 97 53 41 36 28 19 13 15 19 26 34 42 48 49 51 56 61 67
99 98 100 100 100 100 99 97 96 96 96 96 96 96 96 96 96 97 97 97 48 37 35 32 20 15 17 23 38 42 50 58 63 70 77 84 85 86
94 99 100 100 100 100 98 96 96 97 97 96 96 96 96 96 96 97 96 49 39 38 28 20 19 18 32 43 56 75 83 87 87 90 96 99 94 93
88 100 100 100 100 96 98 96 96 96 96 96 96 96 96 96 97 95 46 40 39 27 20 15 24 40 51 73 87 91 88 91 93 90 90 91 98 92
88 96 97 100 87 97 97 96 96 96 96 96 96 96 96 97 93 48 44 34 22 17 17 35 49 73 90 93 90 91 92 91 93 99 97 100 100 100

GFSNE_850_rhum_015.txt.gz
RH
62 73 84 84 83 86 91 93 100 98 94 94 94 94 95 95 98 88 81 73 78 70 74 73 64 70 70 80 86 85 82 77 80 82 94 98 99 85
63 62 65 78 84 83 84 86 88 96 99 98 96 94 93 86 82 84 89 85 77 82 77 83 76 84 81 78 90 89 85 83 82 88 99 100 100 87
57 66 77 85 84 80 75 64 52 81 100 88 94 95 98 98 88 86 80 79 76 74 81 82 85 84 89 87 84 89 88 87 85 90 98 100 100 98
67 74 83 78 62 60 50 30 43 62 99 100 97 100 100 99 98 99 96 91 90 78 77 90 86 81 91 94 91 86 93 90 91 95 100 100 100 99
81 69 58 56 52 44 34 30 84 100 46 53 75 99 92 96 99 97 97 86 78 85 92 82 92 88 87 100 94 90 94 93 98 99 100 100 99 98
74 62 56 57 54 42 35 71 100 89 47 89 84 71 80 81 99 100 97 94 90 82 79 88 94 95 89 78 75 93 99 100 100 100 100 98 99 100
56 47 37 44 48 63 79 95 88 92 94 99 98 97 90 95 100 99 96 94 91 95 96 91 75 84 89 93 78 91 100 100 100 100 100 100 100 95
32 20 21 29 42 80 91 94 95 100 100 100 100 99 99 100 100 100 100 100 98 97 99 96 91 86 88 84 76 86 85 100 100 100 100 100 100 98
60 55 46 62 76 86 84 91 96 100 98 99 99 99 100 100 100 100 100 100 100 99 100 98 100 97 88 97 94 95 100 100 100 100 100 100 100 98
82 76 85 93 89 90 87 89 88 89 97 100 100 98 100 100 100 100 100 100 98 98 100 100 99 96 97 98 100 100 100 100 100 99 100 100 98 97
85 95 98 94 95 89 89 96 92 94 97 95 99 99 98 98 99 100 100 100 100 100 100 100 100 100 100 99 100 100 100 100 100 100 100 99 98 96
96 96 86 93 90 91 88 95 98 89 89 96 90 95 99 99 96 100 100 100 100 100 99 100 100 100 100 99 100 100 100 100 100 99 98 98 96 96
95 87 89 94 96 91 91 96 95 98 94 97 92 92 100 100 99 100 100 100 100 100 100 100 100 100 100 99 100 99 99 99 99 98 97 96 95 97
92 95 96 95 89 90 91 95 100 99 95 100 100 99 100 100 95 96 96 98 99 99 100 100 100 100 99 98 96 98 98 98 97 97 97 97 99 100
91 100 94 92 93 94 98 100 100 100 100 97 99 99 100 98 97 96 97 98 98 99 99 99 100 100 100 99 96 97 97 97 97 98 98 94 96 97
97 98 83 90 98 99 100 100 100 100 99 96 97 96 97 97 96 97 97 97 97 97 97 98 98 99 98 99 98 97 97 94 95 98 91 92 92 84
94 90 71 100 100 100 100 99 100 100 98 95 98 98 96 97 96 97 97 97 97 97 97 97 98 96 67 61 44 90 67 36 48 65 73 63 47 35
93 90 100 100 100 100 100 100 97 97 96 95 98 98 97 96 96 96 97 97 97 96 97 96 64 37 33 29 29 36 39 22 23 37 31 29 27 32
93 97 100 100 100 100 100 100 100 96 96 96 97 96 96 96 96 96 96 97 96 95 47 45 37 26 18 21 20 18 19 20 26 32 33 34 36 41
100 100 98 99 100 100 100 100 96 95 95 97 96 96 96 96 96 96 96 96 83 73 53 31 18 17 20 33 37 37 40 44 45 48 49 54 60 68
93 100 97 100 100 100 100 98 96 96 96 97 96 96 96 96 96 96 96 72 66 50 28 21 21 35 44 51 62 71 71 71 75 79 84 90 94 96
94 100 100 100 90 94 99 96 95 96 96 97 96 96 96 96 96 91 69 53 42 28 19 29 44 61 80 88 92 94 98 99 92 90 92 98 98 95
100 99 100 90 78 93 98 96 96 96 96 96 96 96 97 98 60 46 42 30 21 25 53 75 91 98 96 89 92 93 87 91 96 98 100 100 98 96

GFSNE_850_rhum_018.txt.gz
RH
62 61 50 59 70 89 97 81 90 97 87 66 85 83 84 81 78 81 83 86 80 80 76 81 84 95 100 100 96 91 91 88 91 89 79 71 86 88
30 20 38 67 81 99 72 61 57 80 89 61 69 73 82 82 74 83 71 76 82 80 84 86 92 85 82 87 94 88 88 86 90 97 88 84 75 89
15 28 79 77 76 64 61 58 57 49 79 58 79 98 88 32 49 98 93 89 83 83 84 79 77 81 87 84 86 91 99 97 97 94 96 91 86 80
44 74 61 61 52 46 58 54 59 70 90 98 81 77 62 44 43 28 38 61 74 94 75 71 79 81 87 91 91 91 97 96 90 100 100 96 94 85
81 68 57 42 31 53 64 74 78 82 91 98 86 76 74 60 60 43 41 62 78 90 99 92 97 83 85 87 88 88 92 93 100 95 84 100 100 97
71 57 41 42 55 75 78 88 91 93 97 98 96 97 97 95 97 86 81 88 77 73 90 96 75 71 70 73 66 74 88 88 92 94 89 88 99 100
56 43 42 52 79 88 92 94 98 94 92 94 97 93 95 96 98 97 97 100 99 100 98 95 82 69 81 85 81 76 87 91 87 88 96 81 100 100
60 55 63 68 84 92 95 92 90 88 82 88 95 94 92 98 99 100 96 100 99 99 98 97 96 98 98 96 95 96 88 75 86 97 94 84 98 100
76 77 78 86 95 94 92 93 94 92 95 92 91 90 95 83 87 97 100 100 99 99 99 100 100 100 97 72 75 70 67 76 94 97 96 100 100 100
87 88 98 99 91 88 95 96 94 82 81 99 100 97 98 98 99 99 92 96 100 100 100 100 100 99 99 99 93 83 81 83 86 93 100 100 100 100
79 81 100 93 91 95 97 96 94 90 81 92 97 99 98 95 99 99 98 100 99 100 97 100 99 100 97 98 98 98 93 86 100 100 100 99 100 100
87 98 82 87 92 96 90 95 98 80 88 94 100 93 94 100 100 98 97 98 99 99 96 100 100 100 99 97 98 93 98 100 100 100 100 100 100 100
96 81 68 98 97 87 88 95 95 94 95 94 90 92 100 100 96 96 97 98 98 100 100 100 100 99 100 99 98 99 100 100 100 100 100 100 99 98
93 80 92 98 92 89 95 99 99 100 92 96 100 99 100 98 96 99 97 97 97 97 94 96 98 100 99 100 99 100 100 100 99 99 99 99 98 97
87 97 95 95 87 73 98 100 100 96 98 99 100 100 96 98 99 90 93 96 97 97 96 95 97 98 99 99 98 98 99 99 99 98 98 98 98 97
95 97 94 80 89 98 94 83 88 100 100 96 98 96 89 100 95 95 97 96 96 96 96 96 98 98 98 98 98 97 98 97 98 98 98 98 97 98
89 88 78 96 100 100 97 92 92 100 99 97 98 98 93 99 95 97 96 96 96 97 96 96 97 97 97 97 97 97 97 97 97 97 98 98 98 99
86 84 100 100 100 100 100 100 96 100 97 97 96 96 98 97 96 96 96 96 96 96 96 96 96 95 93 96 97 97 98 97 97 98 99 97 98 100
88 98 100 100 100 100 100 100 100 97 96 96 96 96 97 96 96 96 96 96 96 96 91 44 40 30 26 52 96 78 46 30 90 89 84 87 84 64
95 100 100 100 100 100 100 100 96 96 95 96 96 96 96 96 96 96 96 96 85 58 30 25 20 19 22 26 32 33 29 23 31 55 48 42 36 37
95 100 100 100 100 100 98 96 96 96 96 96 96 96 96 96 96 96 91 81 48 26 24 28 38 46 46 38 38 47 49 49 47 44 47 52 56 59
100 100 100 96 92 90 96 96 95 96 96 96 97 96 96 96 91 81 67 40 27 23 34 48 71 81 84 85 81 78 76 76 77 76 85 94 92 89
100 100 100 83 79 91 96 96 96 96 96 96 97 97 89 84 75 44 28 25 51 78 92 96 96 94 92 95 96 94 95 95 97 98 96 95 95 98

GFSNE_850_rhum_021.txt.gz
RH
7 8 11 22 93 88 95 88 84 83 79 58 65 60 64 64 82 99 85 54 41 66 89 85 79 84 80 85 84 83 89 89 98 92 94 90 95 87
10 13 27 75 49 48 47 44 48 76 87 46 37 52 61 93 90 87 62 72 43 49 58 65 77 80 84 85 84 82 84 84 80 100 96 98 96 92
17 37 81 70 55 53 36 49 71 71 75 44 74 64 98 95 77 62 65 37 35 33 32 31 45 55 86 90 78 86 90 91 98 97 98 94 96 99
47 78 78 64 60 61 66 77 86 86 90 89 80 98 88 81 87 83 87 84 58 48 86 81 55 85 89 80 78 86 89 95 96 96 92 90 100 97
59 70 68 70 68 74 88 90 92 91 94 97 87 79 81 84 85 85 91 91 76 73 92 93 60 43 64 90 95 86 80 84 93 89 88 95 95 98
66 75 75 80 84 89 88 91 93 94 95 97 97 90 84 82 86 85 82 88 93 93 94 97 97 76 51 60 65 66 75 80 79 85 88 97 97 98
74 73 82 90 94 93 94 92 97 96 99 98 94 94 94 94 88 87 89 86 87 84 83 84 98 96 88 80 91 95 80 74 82 91 92 100 99 96
82 80 88 88 92 93 96 90 88 93 96 98 96 98 93 87 92 97 100 100 97 89 100 99 92 81 81 77 71 71 91 99 100 94 72 73 88 90
93 93 86 94 97 93 90 91 97 99 94 92 96 97 99 87 99 100 99 100 99 93 100 100 90 98 97 85 85 91 99 78 89 82 68 76 93 93
92 93 96 95 87 90 96 97 88 76 84 98 97 96 92 91 96 98 98 98 93 86 98 100 96 94 94 96 86 86 94 100 95 82 80 79 86 86
90 96 100 87 87 93 97 96 84 86 85 96 100 100 99 100 100 97 96 100 97 95 99 98 99 96 95 98 96 91 93 98 89 78 78 74 92 96
99 100 90 85 89 98 95 94 96 84 97 93 82 81 78 89 100 97 96 98 98 97 97 98 97 95 98 100 97 97 97 97 90 84 90 96 99 100
95 94 86 92 97 90 88 94 95 93 93 88 87 92 97 95 92 95 96 97 98 100 94 98 100 98 98 99 98 95 88 90 96 100 100 100 100 98
95 87 95 98 85 89 92 99 96 99 92 100 100 100 100 97 97 99 93 96 96 97 96 98 96 98 98 98 100 99 99 100 99 100 100 100 100 100
90 100 96 83 88 91 95 98 99 98 100 97 100 98 99 100 98 96 93 97 96 96 97 96 96 96 97 98 99 99 100 100 100 99 99 99 99 100
97 92 84 86 96 93 94 96 99 100 99 96 97 95 97 100 100 94 97 98 97 96 96 96 96 97 97 98 98 98 99 98 99 99 98 98 98 98
87 87 85 93 94 92 98 100 100 100 98 97 99 98 97 97 95 96 96 97 97 96 96 96 96 96 96 97 97 98 98 98 99 98 98 98 98 97
92 94 94 98 100 100 100 100 97 100 99 99 97 97 96 96 96 97 96 96 96 96 96 96 96 96 96 96 97 97 98 98 98 98 98 98 98 97
98 97 100 100 100 100 100 100 100 98 96 97 96 96 96 96 97 97 96 96 96 80 42 33 29 57 96 96 96 98 96 97 97 98 97 97 95 97
100 100 100 100 100 100 100 97 96 96 95 96 96 96 96 96 96 96 96 91 76 42 36 35 24 35 76 80 69 54 86 97 97 97 97 98 99 100
100 98 100 100 100 98 98 97 97 96 97 96 96 97 96 96 92 88 80 69 43 37 45 52 52 38 34 33 34 45 66 98 96 79 84 82 87 81
97 100 100 100 92 90 96 96 95 95 96 96 100 100 89 81 56 44 34 37 47 57 66 88 83 68 45 37 48 51 55 47 47 43 42 39 42 47
100 100 100 90 79 96 96 96 96 96 98 100 100 75 59 42 32 46 94 96 97 97 98 98 97 94 94 93 71 64 64 66 63 65 82 95 93 86

GFSNE_850_rhum_024.txt.gz
RH
41 45 49 53 68 70 66 62 61 61 54 41 46 46 39 41 49 59 75 82 85 85 62 89 54 38 51 63 74 86 80 78 88 86 72 79 93 99
41 47 53 55 68 64 57 53 51 53 62 63 63 54 59 61 64 76 83 74 70 78 83 90 95 80 33 33 55 52 69 90 90 90 88 84 85 85
48 51 55 59 61 56 56 56 58 62 69 72 72 67 66 69 68 61 63 66 70 71 79 85 90 84 84 91 68 72 83 88 87 86 88 94 80 93
52 55 58 57 61 59 60 62 67 67 72 85 78 75 72 68 74 72 68 68 68 70 75 80 86 90 91 92 70 74 69 92 89 83 86 91 89 91
58 62 64 66 65 65 69 72 72 73 84 84 85 83 79 76 72 71 75 75 72 68 71 74 80 84 90 91 91 87 66 68 89 93 84 90 95 98
66 71 71 71 71 75 77 74 82 93 84 82 86 86 87 81 78 77 77 74 73 76 76 82 91 94 95 95 95 88 79 96 81 74 74 78 86 87
72 70 71 77 87 87 88 94 97 91 91 90 93 97 84 74 79 80 83 81 77 77 82 84 84 87 82 96 95 70 78 90 99 99 91 84 89 88
71 71 70 74 75 86 88 86 86 97 98 99 98 97 78 82 88 85 84 87 93 77 86 90 97 98 79 70 86 92 91 90 82 86 99 100 97 95
72 71 71 70 86 88 79 79 86 98 98 96 92 86 91 90 91 96 99 98 99 87 97 96 77 95 80 79 83 94 91 92 95 96 82 96 100 95
74 74 74 85 90 83 83 93 96 91 79 83 89 93 94 93 99 98 98 96 89 88 97 98 93 88 81 74 78 100 97 94 99 99 100 98 94 87
76 77 91 86 78 85 95 94 88 83 76 85 92 92 91 98 99 96 96 100 97 95 92 97 92 95 98 98 81 65 98 96 99 97 98 97 81 76
82 93 84 82 84 96 96 92 96 85 90 90 88 89 100 100 100 97 96 98 99 98 86 98 93 94 97 85 99 100 100 100 99 97 95 93 86 94
95 90 82 86 97 87 82 89 88 91 91 90 96 96 92 93 94 96 95 96 97 99 84 98 97 91 98 98 89 77 72 78 87 78 76 85 99 100
90 90 89 99 82 83 86 88 89 93 92 98 99 99 100 96 91 93 97 98 96 97 94 97 97 99 96 96 98 89 92 90 100 100 99 100 100 100
89 94 97 83 84 85 87 91 93 94 96 100 100 99 96 93 93 94 97 95 96 96 96 97 96 95 97 97 96 94 97 99 100 99 100 100 100 100
94 96 83 82 83 87 86 87 94 100 97 97 97 95 93 95 95 97 97 96 97 95 96 96 96 97 97 96 97 97 97 98 99 100 100 100 99 100
97 83 84 84 88 90 90 92 98 97 96 96 96 95 96 96 96 96 96 96 95 96 97 96 96 96 97 97 96 97 98 98 99 99 99 99 99 100
90 88 88 94 97 95 95 98 98 98 96 96 97 97 97 96 96 96 97 97 97 94 95 94 92 96 96 96 96 97 98 98 99 99 99 95 98 99
90 89 97 98 97 95 96 98 97 96 96 96 96 96 96 96 96 95 95 100 96 89 79 50 80 96 96 98 97 97 97 98 98 98 97 96 97 98
91 97 99 98 95 95 96 97 96 96 95 96 96 98 99 99 93 86 72 86 72 54 69 57 51 92 96 96 95 97 97 97 97 97 97 97 96 98
94 97 98 95 95 96 97 97 97 96 97 99 100 100 100 96 64 50 70 84 79 66 87 77 52 54 58 74 95 96 97 98 97 94 97 95 96 97
95 96 95 96 98 97 97 97 96 96 98 100 100 100 94 78 86 96 96 96 96 96 96 97 80 46 52 53 92 99 97 96 97 97 96 89 90 92
97 98 99 100 96 96 96 96 97 98 100 100 96 97 96 96 97 96 98 98 98 97 97 97 97 62 63 73 71 74 63 64 60 49 43 57 47 34

GFSNE_850_rhum_027.txt.gz
RH
34 37 42 45 50 51 60 66 64 60 55 50 50 52 58 59 60 62 60 66 68 73 74 72 71 78 84 89 94 93 91 92 94 100 98 74 70 77
37 42 46 49 50 55 57 59 58 58 60 59 58 62 64 72 70 70 68 71 66 66 67 68 70 76 76 84 88 91 91 90 100 93 96 99 82 77
42 47 49 51 55 56 59 60 61 63 65 67 67 70 73 75 73 73 72 74 72 65 66 68 70 73 73 77 84 88 91 92 94 100 98 98 99 89
49 51 54 58 61 64 64 65 68 70 72 75 78 81 80 70 76 77 80 78 73 63 64 68 72 68 73 74 80 86 90 94 92 99 100 98 98 98
56 59 62 65 67 66 68 74 75 80 87 92 87 80 79 81 83 89 78 64 61 69 70 69 69 76 82 80 80 87 91 95 100 100 97 92 90 88
68 67 68 66 66 70 75 83 95 94 90 95 91 89 90 87 97 80 71 72 78 80 72 68 75 78 79 81 81 88 96 94 100 93 100 97 84 87
76 71 66 66 70 74 75 91 93 95 98 98 99 97 98 91 84 76 77 80 81 80 82 85 91 94 81 80 81 88 82 99 100 96 99 100 100 98
77 71 68 68 66 72 82 82 92 92 94 100 99 98 94 80 83 84 88 92 93 91 95 89 93 89 89 87 84 94 93 95 95 83 87 96 91 100
74 71 70 70 75 72 86 86 87 88 95 87 90 92 86 85 88 99 100 100 99 98 100 98 100 96 100 91 95 90 89 98 100 99 98 89 88 88
77 75 75 80 79 86 89 91 87 94 84 84 91 89 93 94 98 99 98 97 99 98 96 99 94 98 77 84 94 76 78 78 93 99 98 94 99 90
83 81 87 94 84 86 95 97 95 89 79 82 89 89 90 91 94 94 96 100 97 97 95 93 94 100 81 91 70 69 99 99 99 100 82 88 94 96
91 90 86 85 88 95 96 95 96 82 98 93 88 86 88 87 96 96 96 98 98 98 89 98 97 98 98 88 90 97 92 82 97 99 100 100 94 94
92 94 94 84 97 90 80 87 86 95 93 88 94 95 97 100 97 94 96 98 98 98 80 99 97 98 99 99 95 92 84 88 97 94 87 85 89 89
96 97 88 98 87 80 81 82 84 87 87 98 100 100 100 100 96 97 96 96 96 97 94 97 97 100 97 98 99 91 88 95 98 96 80 68 71 80
93 92 100 84 82 82 83 86 89 93 98 97 99 98 96 95 94 94 94 96 96 95 96 98 98 97 96 96 97 92 97 94 99 100 100 99 100 100
97 97 84 82 82 85 87 88 94 98 97 96 97 95 95 95 95 96 96 96 96 95 95 97 97 96 98 96 97 95 97 98 99 100 100 100 100 100
93 88 85 87 90 92 92 96 99 96 96 96 96 95 94 95 95 96 97 96 93 92 78 70 95 95 94 98 97 98 97 98 98 99 100 99 100 100
92 90 92 95 97 97 99 96 96 98 96 97 95 96 96 96 97 88 87 85 91 92 92 92 95 94 95 97 96 97 98 98 98 99 99 98 99 99
94 95 96 98 99 99 98 98 97 96 96 96 100 100 100 99 100 93 90 93 91 91 98 75 96 95 96 96 97 97 97 98 98 98 98 99 98 99
94 96 97 97 97 96 97 97 96 94 96 99 98 96 96 96 95 95 95 96 97 96 100 69 95 96 95 96 96 97 98 97 97 97 97 98 98 99
96 94 92 95 96 97 97 96 97 98 100 96 95 96 96 97 95 96 96 96 96 96 96 92 61 88 96 96 96 96 97 98 97 93 95 94 98 98
92 93 96 97 96 96 96 97 97 98 96 96 96 98 97 97 96 96 98 97 97 98 97 96 68 65 93 95 95 96 96 97 98 97 96 92 94 97
97 99 100 95 96 97 97 98 98 98 96 96 98 99 98 96 97 98 97 98 97 98 97 98 78 68 86 96 94 96 96 96 97 97 96 95 92 95

GFSNE_850_rhum_030.txt.gz
RH
24 27 31 38 45 51 52 54 61 69 66 62 61 62 66 67 66 70 72 72 69 68 72 72 72 73 73 70 68 75 77 80 83 87 87 86 100 98
28 28 37 47 51 53 57 60 63 67 70 65 70 71 69 75 80 75 72 70 74 75 77 77 75 75 71 67 72 75 77 74 77 80 85 85 84 98
26 30 45 50 58 61 63 68 70 70 75 75 68 72 79 78 70 75 79 80 81 77 79 77 69 63 69 71 76 71 68 72 78 78 78 90 93 98
29 35 47 61 64 69 70 68 71 72 74 80 82 88 84 80 69 75 83 92 91 83 70 70 67 72 79 82 70 70 73 85 84 81 84 86 85 87
38 48 55 70 74 70 68 70 74 85 96 99 92 88 95 86 80 90 98 90 81 76 68 73 76 75 74 76 77 83 83 80 87 94 97 97 96 100
48 54 76 79 73 72 73 76 88 95 94 94 99 96 93 90 94 92 85 83 80 80 78 81 85 84 86 85 92 95 86 76 87 90 96 92 85 96
59 77 84 78 76 74 76 87 88 90 98 98 96 91 98 82 84 87 88 85 84 91 94 94 96 93 86 92 88 91 95 96 93 91 90 98 99 89
82 88 84 79 77 80 82 82 88 98 94 98 98 97 80 84 98 92 91 97 94 95 96 91 98 93 91 95 96 97 98 95 98 99 97 93 98 92
89 84 84 84 82 81 86 92 95 96 94 92 89 90 92 96 100 98 100 98 95 97 100 100 99 98 94 95 87 94 96 95 98 97 97 96 93 95
86 91 92 91 86 92 95 97 91 91 91 94 86 92 96 97 98 98 97 98 100 98 98 99 100 98 84 79 93 95 95 97 94 93 91 91 94 97
94 98 98 92 94 87 95 96 97 94 73 86 100 96 90 94 94 96 96 100 96 96 93 100 96 95 100 91 69 80 98 97 98 98 97 100 100 99
98 94 97 92 86 95 97 98 97 80 95 96 88 75 88 93 100 96 96 98 99 98 80 97 95 98 98 86 88 86 84 80 94 95 98 95 97 100
94 89 92 89 97 94 86 94 86 95 97 83 92 99 99 98 96 96 97 97 97 97 82 98 98 96 99 98 90 95 96 87 85 83 89 88 96 98
96 86 86 98 88 87 87 86 88 93 85 100 100 100 100 96 94 96 96 96 97 98 96 98 97 99 98 96 96 78 82 94 98 96 98 84 82 82
88 98 100 89 88 88 91 93 96 92 96 99 99 98 96 96 94 94 88 93 91 96 95 94 96 96 95 94 97 89 96 93 98 97 99 98 76 78
93 97 96 87 89 94 92 91 96 97 97 96 96 96 96 93 94 96 95 94 93 91 96 96 97 96 89 95 97 96 97 97 98 98 99 100 100 87
96 92 79 92 98 100 99 95 98 96 96 96 97 97 94 95 93 94 97 95 97 96 94 86 97 94 90 97 96 97 97 98 98 98 100 100 100 100
94 91 99 100 100 100 98 96 96 97 96 99 96 96 97 95 95 95 96 97 96 96 97 96 95 93 96 94 97 97 97 98 99 99 99 98 98 100
91 99 100 100 100 96 97 98 97 97 99 96 96 96 96 97 99 96 95 96 95 97 99 94 96 96 94 97 97 98 97 98 99 98 99 99 98 99
97 100 100 100 96 98 97 98 97 96 95 97 95 96 99 100 96 96 96 97 97 96 94 63 90 96 95 96 97 98 98 98 98 99 98 98 98 99
100 98 99 98 96 97 98 98 98 96 97 96 96 98 96 98 95 97 97 97 100 99 95 83 80 96 96 94 97 96 97 98 98 98 98 99 99 99
98 100 97 95 96 98 97 98 98 94 94 96 99 98 96 98 96 95 98 97 98 99 97 75 96 96 95 94 96 97 97 98 97 97 98 98 100 100
100 100 93 96 97 97 98 100 97 94 96 96 93 95 97 97 97 96 97 97 97 98 96 82 82 92 95 96 95 96 96 96 97 96 97 96 94 96

GFSNE_850_rhum_033.txt.gz
RH
17 20 21 18 18 32 48 56 66 74 70 69 70 68 74 73 72 77 78 63 71 75 75 76 76 75 78 83 80 83 79 81 79 82 74 67 80 72
20 25 24 19 23 41 65 65 68 74 80 70 70 73 73 80 83 81 73 76 71 82 82 79 81 80 84 89 80 68 72 73 68 69 66 87 80 68
28 32 28 28 36 53 67 74 75 74 76 71 73 72 78 71 76 85 94 90 86 88 89 95 91 74 73 71 74 74 70 81 91 88 76 88 92 92
38 40 38 36 56 68 77 78 76 76 80 86 78 85 74 80 92 77 93 97 83 81 85 80 74 74 75 76 79 86 76 72 70 70 71 64 81 95
57 55 51 58 70 82 83 83 82 91 97 98 92 75 90 94 89 96 90 80 76 79 76 75 78 78 82 83 83 83 86 88 95 95 94 94 91 86
59 60 62 67 88 89 84 84 96 89 87 89 92 96 88 94 95 75 75 82 92 87 84 85 89 88 87 88 88 89 92 91 90 91 92 90 86 84
68 70 72 86 89 85 85 88 89 97 97 98 97 94 98 85 86 88 91 93 96 94 95 100 98 96 94 93 90 92 95 97 98 96 98 95 93 89
76 78 79 86 89 88 89 88 91 97 95 98 98 99 91 95 95 92 97 98 95 90 92 99 98 96 96 92 93 96 97 99 99 90 98 97 99 100
78 82 87 92 94 91 89 96 96 96 97 96 95 99 100 91 98 97 98 100 98 96 100 100 100 99 95 97 98 96 93 90 90 98 99 100 99 100
86 87 94 96 92 93 97 92 94 90 88 96 94 96 97 98 98 98 98 100 97 90 96 98 89 98 87 89 92 100 100 100 99 100 100 100 99 94
77 90 100 95 91 90 95 96 94 90 70 92 100 98 93 95 98 96 94 100 98 95 74 100 89 95 97 81 69 68 72 100 99 97 97 97 99 94
89 86 95 88 88 98 97 98 96 76 98 98 87 72 74 88 100 97 96 98 99 98 77 98 98 98 96 88 80 84 82 77 94 100 100 100 100 100
91 93 78 92 98 88 86 92 92 95 94 83 86 89 92 94 95 96 96 97 97 97 85 98 99 97 98 96 92 82 79 86 92 92 95 97 100 100
97 82 93 97 89 91 93 95 96 98 88 99 100 100 96 94 94 94 95 96 96 97 95 97 98 98 98 95 96 75 92 94 98 96 98 98 88 83
90 100 100 95 93 86 97 100 99 91 95 96 100 96 97 96 94 94 91 95 91 94 96 96 97 96 98 96 98 90 98 92 97 97 98 92 88 83
96 94 86 86 93 90 86 93 95 98 98 97 97 95 95 95 95 96 95 93 96 86 90 96 98 97 90 94 97 95 97 98 96 98 98 99 97 82
94 88 80 92 91 88 91 95 96 96 96 96 96 95 94 96 96 95 96 95 97 96 93 89 96 97 94 96 95 97 97 98 99 98 99 100 100 88
95 94 100 100 100 100 100 96 94 98 96 95 95 96 97 99 100 95 96 97 96 96 100 80 94 93 94 95 99 97 98 98 98 99 98 99 99 100
98 99 100 100 100 100 99 100 98 95 96 95 96 97 96 96 96 97 96 94 96 97 93 87 95 96 95 97 98 98 98 98 98 98 98 98 98 99
98 100 99 100 98 99 98 97 94 93 93 95 96 97 97 100 96 97 95 97 98 96 84 92 94 96 96 98 96 98 98 99 98 98 99 98 99 99
93 94 99 99 98 98 97 96 96 96 97 97 95 97 97 98 96 98 96 96 99 97 84 95 98 97 96 95 97 96 97 98 98 98 99 98 99 99
94 99 92 95 97 97 97 96 95 95 95 95 96 97 97 97 97 98 97 98 99 97 90 96 98 96 95 93 97 98 97 98 97 97 97 98 100 99
98 98 93 97 97 97 97 97 98 96 97 97 98 94 97 96 98 99 99 96 98 98 92 85 96 96 96 96 96 97 97 98 97 95 98 98 97 98

GFSNE_850_rhum_036.txt.gz
RH
15 18 22 22 23 22 24 46 76 87 81 72 77 72 74 73 74 76 80 82 88 84 78 81 80 80 79 79 77 78 84 89 96 91 79 68 70 73
20 26 28 34 32 28 42 56 71 81 92 72 74 77 81 85 83 84 86 92 75 82 88 87 86 87 95 96 96 93 78 84 81 81 73 81 84 80
29 40 47 50 48 46 48 60 75 85 91 78 77 86 86 76 92 96 96 89 81 89 87 87 80 81 79 79 86 84 87 78 73 74 83 82 90 94
46 54 56 58 56 52 58 79 84 84 93 98 82 83 75 75 90 81 99 97 91 80 77 78 77 77 76 79 79 82 88 82 82 80 80 76 78 81
57 62 62 67 68 67 87 89 89 97 96 92 88 71 86 95 87 96 86 77 79 76 80 83 86 87 87 86 83 85 92 93 92 94 92 89 91 93
62 66 72 77 75 91 93 95 98 96 96 98 97 97 85 84 96 83 78 81 84 81 90 96 93 89 89 89 89 92 96 97 93 90 86 83 78 92
70 74 78 73 91 89 93 95 94 96 97 94 87 95 97 82 87 89 93 96 96 97 97 90 96 91 92 93 93 94 95 95 94 94 94 96 96 95
77 78 70 77 92 93 93 92 92 95 86 97 98 95 92 92 95 99 99 98 98 90 95 90 98 99 80 88 99 100 97 96 96 98 99 98 100 98
74 75 74 92 88 81 87 92 80 97 97 96 91 92 100 94 98 97 99 100 100 99 100 95 82 90 77 78 93 100 99 96 95 97 96 98 98 98
75 76 95 87 88 91 96 95 96 70 72 85 96 96 98 96 98 98 98 100 99 88 96 98 86 86 79 79 75 86 100 100 100 99 98 99 97 97
72 98 97 94 91 95 97 95 96 79 66 89 100 99 96 100 99 96 94 100 99 98 88 100 86 99 96 86 82 85 83 99 100 99 100 98 98 99
96 90 97 92 94 98 94 97 92 75 98 97 77 69 73 81 99 98 96 98 100 99 84 98 99 100 96 92 84 89 84 76 99 100 100 98 97 96
88 96 78 99 98 90 91 93 94 97 93 81 77 79 84 88 93 96 97 97 97 98 81 98 98 98 100 98 96 88 84 87 95 95 97 100 100 99
96 84 95 97 94 96 98 100 100 99 84 86 93 93 94 92 93 95 95 96 96 97 95 97 97 98 98 100 100 75 85 94 96 96 96 96 97 100
89 100 98 96 86 73 93 100 100 92 95 95 97 93 96 92 90 92 87 90 91 94 96 96 97 97 100 98 97 89 97 89 97 97 97 97 97 98
95 93 79 70 70 90 82 82 88 100 100 97 97 94 92 93 91 93 96 94 95 84 87 89 97 98 95 90 96 94 96 97 98 98 98 98 100 98
95 85 72 77 79 83 84 89 92 94 97 95 95 95 92 97 92 88 94 97 98 97 96 86 91 97 97 96 95 97 98 99 99 98 98 100 100 94
98 83 90 94 95 97 99 96 90 93 95 95 93 96 96 99 97 91 89 100 98 97 100 95 93 84 83 86 98 98 98 99 98 98 99 100 100 100
88 90 94 95 97 97 98 97 94 92 96 94 96 97 97 94 97 94 93 99 94 100 89 96 95 97 94 99 95 99 98 98 98 98 99 100 100 100
90 94 96 94 96 98 96 96 94 93 93 94 97 98 98 99 96 95 96 98 99 96 86 95 95 97 97 98 97 98 98 97 97 98 98 99 99 99
91 90 90 94 97 98 97 96 96 96 97 96 95 96 96 98 95 94 96 98 99 97 86 95 99 98 97 92 94 97 98 98 98 97 98 98 99 99
91 90 85 94 98 98 96 96 94 94 94 95 96 96 96 98 98 98 98 97 97 98 82 96 97 97 95 94 97 98 98 99 98 98 97 93 99 99
91 88 92 96 96 96 96 96 95 95 97 97 97 96 97 96 98 97 98 96 98 96 84 90 96 96 97 96 96 97 97 98 100 97 97 98 98 98

GFSNE_850_rhum_039.txt.gz
RH
16 19 24 31 36 39 41 45 65 91 80 72 76 77 82 83 83 80 84 78 88 86 82 78 79 84 89 92 95 94 92 93 94 90 90 93 96 96
17 23 30 40 48 49 53 52 60 81 100 66 64 79 91 96 86 88 76 92 83 85 87 86 85 81 80 87 84 84 94 84 89 98 98 94 94 94
20 34 41 52 57 64 66 63 76 82 99 82 71 76 78 77 78 88 94 95 87 95 96 91 80 82 81 81 85 87 86 91 91 90 95 91 92 93
34 46 52 62 71 73 71 83 82 86 100 98 86 74 75 68 87 100 98 96 85 56 82 81 82 82 83 86 92 97 92 88 87 87 86 85 86 89
48 55 65 72 74 73 86 86 98 100 100 100 97 88 91 100 98 94 85 84 77 78 83 85 88 90 88 89 90 95 98 97 97 96 96 95 93 93
51 59 66 71 70 91 91 96 99 90 90 99 100 100 99 94 90 87 82 82 89 94 97 92 99 97 92 90 90 90 92 92 90 92 93 96 97 98
51 49 54 64 84 93 91 90 94 94 97 100 98 93 87 79 85 81 97 100 96 99 97 83 85 90 81 80 77 82 97 99 96 93 93 93 95 95
43 52 61 74 80 93 95 96 91 97 96 96 92 98 94 90 88 100 98 100 95 97 97 94 99 94 79 73 77 100 100 98 96 98 100 98 98 98
58 66 78 86 80 84 87 95 98 98 94 94 90 92 96 96 98 94 100 100 100 100 100 99 82 82 84 82 93 100 100 100 99 98 99 100 99 98
73 82 95 86 90 93 95 98 79 81 78 83 98 97 98 97 99 99 97 99 99 90 100 97 86 87 86 86 77 97 100 100 99 100 99 98 98 98
85 99 97 96 94 97 97 97 94 77 73 94 100 97 84 95 99 97 93 100 100 96 80 100 88 99 94 79 77 87 100 99 99 99 98 99 99 99
100 96 94 95 96 98 93 97 96 80 97 96 78 70 71 77 91 96 96 98 100 98 73 98 97 98 95 91 84 89 82 81 99 100 100 100 98 96
86 88 80 95 98 93 95 96 95 97 93 84 80 81 84 84 84 90 95 100 97 98 85 98 96 97 100 97 90 79 82 94 96 95 96 98 100 100
95 85 90 99 98 97 95 100 100 100 83 89 92 92 87 84 83 85 85 90 96 97 95 97 97 99 97 99 100 77 88 95 96 96 97 97 96 98
92 98 100 98 79 64 77 100 100 87 98 98 99 90 90 87 84 88 85 86 84 82 95 96 98 97 97 96 98 93 97 90 94 98 98 97 96 97
97 96 84 69 62 73 78 80 88 98 100 99 97 92 92 89 85 91 95 91 92 82 80 95 97 98 96 95 97 95 95 98 98 98 99 98 97 98
98 87 70 69 69 81 83 88 91 92 97 96 97 95 93 93 90 89 92 94 98 99 89 87 88 92 96 96 92 97 98 99 98 98 99 99 99 99
96 77 76 79 86 92 97 95 90 92 95 96 94 97 96 97 95 90 91 94 98 97 98 95 94 87 77 83 98 99 97 98 97 98 98 100 100 98
78 79 83 85 92 96 98 98 95 93 97 96 98 98 98 95 96 93 94 96 92 99 94 96 98 100 100 97 90 100 98 98 97 97 98 98 100 100
81 87 88 86 95 99 98 98 94 94 95 95 97 98 98 99 96 95 95 98 98 98 87 90 95 97 98 97 96 97 99 98 97 99 97 99 99 100
84 86 84 89 98 100 99 96 96 96 97 97 95 97 97 97 95 96 97 96 99 98 93 91 98 98 98 88 91 96 98 98 98 98 97 98 99 99
86 88 80 94 99 98 96 96 93 95 96 96 96 97 97 98 98 97 98 99 99 100 96 92 98 96 93 96 97 97 97 98 98 98 98 97 99 98
88 84 86 97 97 96 97 95 96 96 97 96 96 96 98 97 98 97 97 99 99 97 91 77 97 97 96 96 97 97 96 96 97 97 98 99 99 99

GFSNE_850_rhum_042.txt.gz
RH
14 16 20 30 40 45 52 61 75 81 69 70 70 62 81 88 83 89 80 72 90 88 86 85 85 86 89 92 93 96 94 91 95 98 94 95 97 96
14 20 26 33 42 50 64 71 75 76 97 59 58 70 87 86 73 82 73 92 83 92 90 86 86 92 90 86 88 82 86 95 93 89 89 86 96 97
18 24 26 37 48 61 71 74 73 83 98 78 73 67 78 66 68 90 100 90 80 84 94 91 88 85 82 85 88 92 93 93 93 94 94 94 90 93
21 27 33 48 57 64 61 70 80 87 100 94 89 72 72 66 93 99 83 82 76 83 95 88 89 88 90 92 96 98 99 96 96 95 92 94 96 92
27 35 44 52 52 54 78 86 92 98 98 99 93 89 84 99 91 82 69 76 80 86 89 94 95 96 98 95 96 97 98 98 94 92 94 96 98 94
28 36 42 52 56 86 94 96 97 87 83 96 98 97 97 81 80 79 85 86 96 90 94 100 99 97 96 96 98 98 96 95 92 92 90 92 93 92
36 46 57 61 72 96 94 93 94 89 97 97 99 94 95 89 84 86 100 95 100 96 95 99 89 95 86 78 89 96 100 100 100 99 94 94 96 94
50 61 64 72 72 96 96 100 96 97 96 96 98 100 86 86 92 100 99 100 97 94 100 100 87 78 76 75 78 100 100 100 100 99 98 98 98 97
64 68 77 81 81 84 86 100 98 96 97 94 92 90 96 96 99 94 100 100 100 89 88 100 77 86 76 79 72 96 100 100 100 99 99 99 98 100
68 80 91 84 90 95 96 99 84 84 74 79 98 99 98 98 100 99 97 98 97 80 93 100 80 80 79 75 68 69 91 100 100 99 99 99 98 99
82 97 95 95 95 96 96 97 88 77 76 92 98 99 83 85 94 97 94 100 100 90 68 99 89 92 91 78 69 76 94 100 99 100 100 100 98 100
98 87 89 99 98 99 94 97 92 81 97 99 82 73 72 72 81 91 97 97 100 97 71 98 94 99 95 80 79 74 83 88 97 99 99 99 99 95
88 94 88 100 97 95 97 96 96 97 94 88 77 77 81 82 82 85 93 97 96 98 85 98 95 93 100 99 84 73 92 94 97 95 97 98 97 98
96 90 95 97 100 99 88 98 100 100 84 85 84 87 89 86 83 85 86 90 91 96 94 97 96 98 97 97 100 79 93 92 96 91 96 97 97 97
93 99 100 98 69 60 75 88 87 85 90 94 97 90 89 87 83 86 85 88 82 77 94 96 97 96 100 96 97 92 98 89 89 100 99 98 98 97
95 94 74 67 61 68 75 78 84 90 100 98 97 91 90 88 86 91 94 94 92 74 78 96 97 98 96 94 97 94 96 98 98 98 99 100 100 98
100 77 66 66 65 77 80 81 85 89 98 96 97 95 93 92 87 92 97 98 97 92 82 82 86 83 87 96 96 97 98 99 97 98 98 100 99 100
79 69 70 74 75 87 89 88 87 91 95 97 95 97 96 95 96 93 98 100 98 91 94 95 91 84 76 80 98 97 100 99 98 97 98 99 100 99
69 72 79 77 83 92 94 95 93 92 96 96 96 96 96 96 97 95 99 100 92 95 98 92 97 100 100 97 85 100 99 99 99 97 97 99 100 99
72 80 82 80 91 95 95 97 94 92 94 93 96 98 98 98 96 95 98 100 96 98 93 81 97 98 98 97 96 97 99 99 99 98 97 98 100 98
77 81 81 83 94 97 98 97 96 96 97 97 96 97 97 98 96 96 98 97 99 98 98 82 97 98 98 87 91 95 97 97 98 98 98 96 99 100
79 82 76 91 95 98 97 97 95 95 96 96 96 97 98 98 98 97 97 98 96 99 91 76 96 96 95 95 99 97 97 97 96 99 100 99 98 98
81 79 85 94 98 98 98 97 96 96 98 98 97 95 96 96 98 97 97 99 98 98 85 73 90 92 96 98 97 96 95 96 95 96 97 97 98 99

GFSNE_850_rhum_045.txt.gz
RH
13 13 16 20 24 32 40 52 77 75 66 58 66 72 87 90 75 88 93 94 94 95 92 90 87 88 86 88 94 92 94 96 96 96 95 96 90 92
15 16 19 23 26 34 46 56 64 84 89 58 69 86 90 88 94 95 93 84 83 95 93 93 92 92 95 94 90 92 95 95 93 93 92 93 95 95
17 18 20 27 31 35 38 43 52 77 94 69 78 75 87 88 92 98 100 97 91 92 94 97 95 95 94 93 96 96 97 97 96 96 97 94 95 95
16 18 22 28 30 34 42 54 77 93 100 98 91 75 84 95 100 100 88 82 85 84 93 96 97 98 98 97 98 97 98 97 97 98 97 96 98 95
20 27 29 34 40 49 69 94 98 100 100 100 87 85 97 100 92 81 77 88 88 91 95 96 98 100 100 100 98 96 96 96 98 97 94 96 96 95
23 30 36 48 57 80 100 98 99 94 95 96 99 98 94 86 86 90 90 89 95 94 94 99 98 99 99 98 99 100 100 100 100 99 97 95 93 91
27 33 45 59 75 98 98 97 94 95 89 98 97 94 92 90 91 93 100 100 100 93 94 97 89 87 73 78 75 76 100 100 100 100 99 99 98 98
35 45 61 74 76 100 97 99 99 96 97 95 96 97 90 94 95 100 98 100 100 93 96 100 88 78 72 68 68 94 100 100 100 100 100 100 100 100
41 62 82 82 82 87 86 100 98 99 96 97 94 97 98 99 97 92 98 100 99 92 85 99 71 84 73 66 62 63 72 96 100 100 100 100 100 99
59 79 86 86 96 98 94 99 83 94 97 97 100 98 98 98 100 100 97 98 94 86 97 100 74 82 77 67 59 63 70 100 100 100 100 100 99 98
73 86 91 100 99 96 96 95 98 96 80 93 100 100 81 79 92 98 95 100 95 93 67 97 96 91 81 67 66 71 83 98 97 97 98 97 98 99
99 98 99 100 96 100 96 96 100 80 96 100 85 75 74 74 80 98 100 96 98 100 76 98 91 99 97 81 75 72 74 87 98 98 98 97 95 97
95 98 96 100 100 96 98 99 94 97 99 86 78 77 81 86 87 89 94 97 96 100 79 100 91 89 100 100 80 74 86 90 92 88 85 96 97 98
99 97 98 99 98 98 82 86 100 100 85 86 86 86 90 88 87 86 87 91 93 91 80 96 96 98 96 96 100 88 83 89 96 92 96 94 100 98
96 97 98 78 61 58 66 82 81 84 91 98 100 94 91 88 84 85 85 90 82 78 80 92 97 95 100 100 97 91 94 95 91 100 99 99 98 98
95 89 65 64 60 60 73 76 83 90 99 100 98 92 90 89 84 90 92 93 92 74 73 87 96 97 95 96 98 89 99 99 97 100 100 98 98 100
100 68 62 64 60 72 80 81 85 90 94 96 97 96 93 90 84 88 95 96 93 90 79 77 90 93 82 94 93 96 97 97 99 98 96 98 100 99
84 64 66 71 70 85 88 87 88 92 96 97 95 97 96 93 94 91 96 96 95 87 89 88 93 85 75 70 92 97 97 98 98 98 98 99 100 100
62 64 70 71 78 91 93 94 94 93 97 96 97 95 96 95 95 95 96 96 89 90 94 84 95 100 100 100 80 97 97 98 99 99 98 98 100 100
62 69 74 74 90 94 95 97 95 93 95 94 96 97 97 97 94 96 97 97 95 98 92 72 95 99 98 98 96 94 98 96 98 100 98 98 100 99
67 72 74 84 94 96 98 99 98 96 97 97 96 96 96 97 95 98 98 96 99 98 98 80 95 97 95 89 95 96 96 97 97 99 100 95 96 98
73 74 76 93 96 97 98 98 95 95 96 96 96 97 97 97 97 98 99 98 95 99 99 83 93 88 88 95 94 92 96 92 97 96 97 100 99 98
77 75 89 93 95 97 99 98 97 97 99 98 98 97 97 96 98 97 98 98 96 98 97 83 87 88 87 86 87 87 91 92 96 94 95 96 98 98

GFSNE_850_rhum_048.txt.gz
RH
15 16 18 19 22 38 52 61 61 56 49 43 42 48 58 68 71 76 77 78 85 92 92 90 90 94 97 93 95 94 98 94 96 98 95 95 96 93
18 18 19 22 27 47 63 66 66 64 64 51 53 62 69 72 74 76 75 84 87 88 87 89 92 94 95 95 96 97 99 99 97 96 96 96 94 94
20 19 18 22 31 48 60 63 66 68 70 66 71 73 80 73 73 80 83 85 74 72 80 91 94 97 99 98 97 97 96 98 99 99 98 99 95 96
19 19 20 28 32 58 67 69 74 79 80 85 81 87 73 79 86 86 72 69 77 77 85 93 97 97 100 100 100 100 99 99 98 98 99 99 99 98
21 19 22 34 58 69 75 83 84 86 91 94 86 79 81 92 85 76 81 76 77 82 86 90 94 97 100 98 98 98 98 99 98 99 98 97 98 98
20 24 33 51 74 80 85 82 83 88 79 84 88 86 99 80 78 75 78 80 87 89 87 94 91 93 91 91 95 97 99 100 100 100 100 100 100 100
29 48 63 72 59 96 96 95 90 88 87 94 98 94 83 78 74 82 92 90 94 92 86 85 83 82 68 79 86 93 97 100 100 100 100 100 99 99
53 66 74 82 90 94 96 95 96 96 97 100 90 92 77 79 87 94 100 99 98 90 92 82 92 82 77 74 80 95 100 100 100 100 100 100 100 100
64 76 78 84 92 91 94 91 90 99 98 94 87 83 89 91 90 92 95 94 100 92 100 90 89 88 74 70 76 86 88 92 100 100 100 100 100 100
79 85 89 89 88 92 92 92 96 91 83 86 90 94 94 94 97 98 98 99 96 98 99 99 81 85 88 75 59 60 68 88 100 100 100 99 98 98
82 85 89 89 91 94 98 94 88 83 82 91 100 100 100 100 100 96 96 100 99 100 84 100 95 91 81 65 68 80 91 80 88 100 100 100 99 96
83 84 84 92 94 98 96 92 91 82 91 94 98 93 97 100 100 100 98 99 100 100 86 98 96 100 97 84 80 73 83 78 92 100 100 100 99 98
87 82 85 91 93 95 98 97 95 100 98 100 96 99 100 100 100 99 99 100 100 99 75 100 96 92 100 98 80 69 82 83 91 100 94 95 100 98
91 90 92 96 95 96 85 85 100 100 100 100 100 100 100 93 88 87 85 85 89 95 81 90 98 100 97 98 100 78 72 77 97 96 96 98 99 99
96 96 96 95 63 56 66 84 91 100 100 100 100 100 98 94 88 86 83 87 82 77 79 84 98 97 100 99 100 96 100 87 99 100 100 100 100 100
96 95 95 76 82 83 85 94 100 100 100 100 100 98 93 92 88 94 96 90 92 75 72 84 91 98 95 98 100 93 87 100 96 96 99 96 97 98
99 95 85 84 91 93 99 100 100 100 100 100 98 96 92 94 89 91 97 99 99 98 82 77 80 96 93 92 90 86 100 100 98 97 96 99 99 100
82 89 87 98 99 100 100 97 93 96 99 99 95 97 97 94 98 93 95 100 100 96 99 95 98 89 82 76 86 95 98 100 96 96 98 99 98 100
71 93 100 100 100 100 100 98 96 93 96 97 96 94 96 96 94 95 95 97 99 96 100 100 100 99 98 100 79 86 98 97 98 94 96 98 99 100
71 96 100 96 99 98 97 98 93 92 95 94 95 98 97 97 96 96 97 98 97 100 100 99 99 100 100 99 99 75 94 97 99 96 99 94 97 98
81 83 88 88 95 97 98 96 96 95 96 97 95 96 96 97 94 96 96 96 100 100 100 100 81 94 92 89 100 92 80 96 98 98 99 98 99 95
79 75 75 93 98 99 98 97 96 95 97 97 96 96 96 96 96 96 97 99 97 100 100 100 80 88 84 90 93 85 97 87 87 97 98 98 99 98
73 73 85 96 99 98 98 98 98 96 97 96 96 95 96 95 96 97 98 96 99 100 100 100 93 83 81 84 83 83 97 90 100 100 97 97 98 98

GFSNE_850_rhum_051.txt.gz
RH
18 20 23 26 30 35 40 51 63 64 58 50 45 44 47 55 63 70 71 72 76 82 84 86 88 89 87 94 97 94 98 98 98 98 98 99 96 96
23 23 24 26 30 35 44 54 59 62 64 58 58 62 66 69 70 75 70 78 77 81 83 81 83 87 92 95 99 99 100 99 99 99 99 99 99 98
25 26 26 31 36 41 50 56 61 64 67 69 75 77 75 81 78 77 85 69 82 72 78 85 86 90 95 96 97 100 100 100 100 100 99 99 98 100
26 30 33 41 43 50 58 63 66 71 77 78 82 84 82 76 82 88 94 74 68 76 78 84 89 92 92 94 97 100 98 98 96 98 99 99 99 99
36 40 36 49 54 60 66 73 79 80 80 82 84 82 81 90 94 86 72 76 75 77 83 87 92 93 93 92 91 90 91 91 96 99 98 100 99 99
43 50 54 56 61 71 76 90 87 85 90 88 81 79 100 98 82 79 78 81 84 84 88 88 92 91 87 86 94 96 97 98 100 100 100 100 100 100
39 47 54 62 68 87 93 91 91 92 85 86 99 99 92 88 82 81 89 93 78 99 91 74 87 68 72 83 83 93 96 98 100 100 100 100 100 100
34 42 60 70 72 85 89 88 88 95 97 97 96 96 95 84 86 95 92 99 100 86 99 76 78 73 79 77 89 96 98 100 100 100 100 100 100 100
49 66 73 75 83 85 85 86 88 92 93 94 95 88 87 86 84 90 94 98 100 96 100 90 82 80 77 72 83 86 83 73 95 100 100 100 100 100
59 74 78 80 83 85 90 87 84 84 89 87 88 91 88 93 97 98 98 93 87 84 99 100 84 76 90 78 58 59 65 94 100 100 100 100 100 100
73 73 79 84 82 90 90 97 95 82 82 86 88 99 100 97 98 96 89 95 98 99 88 100 92 92 78 62 62 73 76 71 74 97 100 100 97 97
77 81 81 82 88 91 94 94 92 89 89 90 92 84 91 91 100 98 97 97 98 100 81 97 96 98 98 82 70 64 67 70 78 79 99 100 99 96
88 88 86 90 92 92 94 94 97 98 95 93 86 88 85 86 96 100 100 100 100 100 78 100 99 95 100 99 73 65 74 79 87 79 84 98 98 98
91 89 89 94 94 94 96 96 100 100 96 96 95 98 99 96 92 89 87 91 93 98 89 93 100 100 100 96 94 72 74 79 93 93 94 97 99 100
90 93 94 95 96 86 89 98 100 97 98 98 99 100 99 97 90 86 84 89 88 79 81 89 100 100 100 98 100 89 98 84 91 100 98 100 100 97
93 88 84 92 80 84 86 88 90 95 99 96 95 92 95 95 91 93 97 93 99 75 75 87 100 100 96 96 100 100 87 100 99 100 98 95 100 97
98 63 72 76 79 85 88 89 89 94 99 97 97 97 94 96 90 91 93 99 100 100 85 73 89 100 100 98 96 91 96 100 100 100 100 93 100 99
68 77 81 82 88 88 92 87 90 95 99 99 98 97 98 96 95 90 93 99 100 100 100 100 100 99 95 86 91 97 95 99 100 100 100 99 99 90
76 85 81 87 88 100 99 96 95 92 97 97 97 96 96 96 97 93 95 97 99 100 100 100 99 100 99 99 75 78 98 91 98 100 100 98 98 93
75 83 80 85 88 95 96 98 95 94 95 95 94 96 96 98 96 96 99 100 100 100 100 100 100 100 100 99 100 72 68 98 98 98 97 95 94 94
75 73 77 80 93 97 97 97 98 96 97 97 95 96 96 97 95 95 99 98 100 100 98 99 100 100 99 100 100 100 72 85 98 98 98 98 96 100
72 70 73 88 98 98 97 98 97 95 96 96 96 96 96 97 96 96 97 100 100 98 96 99 100 93 100 100 100 100 97 90 89 94 97 98 99 98
73 73 81 95 98 98 99 99 98 94 96 97 97 96 96 96 96 97 98 97 97 98 99 99 99 95 100 100 100 100 100 96 96 89 86 97 98 97

GFSNE_850_rhum_054.txt.gz
RH
20 22 22 23 24 25 29 37 52 67 60 43 48 42 41 47 50 54 57 55 81 85 85 82 85 84 84 86 92 96 99 98 98 99 98 99 98 97
24 24 25 26 25 26 28 31 39 52 62 52 57 63 73 72 61 77 68 74 82 88 86 87 84 88 89 94 97 98 99 99 100 100 100 99 99 99
26 26 28 29 26 26 30 32 43 58 67 65 71 82 83 77 75 74 75 88 82 82 83 86 86 88 89 94 96 97 98 99 100 99 100 99 99 98
28 30 29 26 26 30 36 50 62 66 73 85 87 81 83 69 72 80 78 71 74 78 84 87 91 92 95 95 96 95 94 93 95 97 99 98 99 100
30 29 27 30 31 41 52 58 62 66 78 86 85 78 77 74 93 87 73 83 80 79 86 86 93 95 96 96 93 93 95 95 97 97 96 99 100 100
23 25 32 40 52 60 65 76 88 87 89 86 92 99 100 98 94 89 88 84 72 78 77 64 94 62 81 78 86 89 97 100 100 100 100 100 100 100
17 20 32 46 53 75 82 87 91 91 91 98 100 100 100 100 97 91 88 81 76 90 99 63 77 66 60 66 66 62 91 100 100 100 100 100 100 100
15 20 35 45 54 77 86 89 88 91 90 91 96 100 100 92 95 93 79 99 100 96 98 74 75 72 71 74 67 95 100 100 100 100 100 99 100 100
15 32 45 58 66 78 84 87 90 91 92 95 96 92 95 95 94 91 95 99 95 84 95 97 70 79 74 70 63 68 79 66 96 100 100 100 100 100
18 38 65 72 79 86 86 95 91 82 86 97 98 96 96 93 97 98 98 98 83 79 97 100 86 80 76 70 63 60 63 84 99 98 100 100 99 100
23 42 58 74 86 88 92 85 90 90 83 79 97 100 100 100 100 99 94 98 94 96 82 100 88 84 79 67 63 67 71 68 73 78 96 100 100 100
39 44 65 91 93 92 92 97 97 88 85 93 86 76 73 80 82 90 100 100 98 96 79 98 90 95 99 84 74 67 64 69 73 78 83 83 83 100
84 79 84 94 94 93 93 95 93 96 96 91 81 78 77 76 82 87 97 100 100 100 76 100 96 95 100 98 75 68 71 70 77 76 78 80 90 98
85 90 91 97 96 95 94 92 97 98 90 86 89 82 84 84 85 86 84 86 89 97 86 95 96 100 99 97 94 79 73 73 84 83 88 94 90 99
80 96 99 93 71 77 73 95 97 85 89 94 92 87 87 86 88 87 81 84 86 82 85 92 100 98 98 98 99 90 95 80 78 91 90 96 100 100
86 90 66 48 61 72 65 72 82 88 95 97 95 89 89 91 88 90 94 93 98 82 78 91 100 100 95 97 99 95 83 100 86 91 98 100 100 100
99 70 49 52 56 60 72 83 86 88 90 92 94 96 94 94 92 92 95 100 100 100 88 74 91 100 97 97 98 85 91 88 89 95 100 100 100 100
76 57 57 62 67 73 86 87 87 91 94 97 97 96 98 97 97 94 96 96 99 97 100 95 95 89 87 92 95 95 92 91 87 95 100 100 100 95
54 53 62 66 71 84 94 96 93 91 96 96 95 95 97 97 99 93 95 97 95 94 92 94 93 97 97 96 87 98 97 92 94 98 100 100 100 86
55 63 66 70 79 94 96 96 93 92 94 92 94 97 98 98 94 96 97 100 96 94 96 91 100 98 98 98 97 74 87 99 99 96 97 99 90 90
63 63 70 75 90 95 96 96 96 95 96 97 96 96 96 97 96 98 99 98 99 97 98 98 100 100 99 97 100 93 81 85 96 98 97 97 97 100
70 71 72 87 94 95 96 96 94 95 96 97 96 96 96 96 96 96 98 98 97 98 99 98 100 100 94 100 100 97 95 83 80 81 88 98 99 99
76 75 84 92 93 95 98 96 96 95 98 97 97 96 96 96 97 97 98 98 98 97 100 98 100 95 90 97 100 97 96 93 93 86 71 82 100 100

GFSNE_850_rhum_057.txt.gz
RH
18 20 22 23 24 26 26 31 42 55 46 36 40 32 28 30 36 54 58 49 89 92 94 92 90 90 89 88 96 95 98 98 98 98 98 98 98 98
22 23 25 26 27 27 27 29 35 45 60 43 40 39 40 47 52 54 55 58 62 73 95 94 92 91 91 93 93 97 97 99 98 99 98 98 98 98
24 26 28 28 28 27 28 30 32 41 55 47 50 50 61 61 64 63 63 68 57 65 90 93 92 92 91 96 96 99 99 99 99 99 99 99 98 99
27 28 28 28 27 30 32 33 39 46 59 62 64 70 78 77 75 70 73 69 64 63 93 95 96 96 99 100 100 95 97 97 98 96 96 93 97 98
29 26 24 26 30 34 38 44 56 66 65 84 87 88 87 82 89 85 79 68 69 71 79 68 86 85 100 99 99 100 99 100 100 100 100 100 100 100
24 19 20 27 34 42 52 71 80 84 90 91 94 92 92 100 97 89 86 78 66 73 78 60 96 64 68 62 65 64 76 100 100 100 100 99 98 99
17 16 18 25 39 48 78 83 88 90 91 98 94 95 100 100 90 92 92 78 72 80 95 77 74 63 61 61 63 60 69 100 100 100 100 100 100 99
14 12 15 26 42 59 81 88 90 91 91 94 96 100 98 88 94 100 89 91 100 80 96 80 77 70 66 69 66 70 71 100 100 100 100 100 99 99
10 10 17 33 48 61 68 86 92 94 96 94 92 93 99 91 93 93 96 100 95 73 89 93 74 74 70 71 63 60 61 75 95 100 100 100 100 100
9 17 29 37 44 75 92 94 96 90 82 91 98 99 98 94 98 99 98 97 91 80 83 100 80 76 74 68 60 59 62 68 96 93 98 100 100 100
17 27 36 43 65 95 94 94 97 93 87 80 88 98 100 98 92 100 91 98 94 95 78 100 85 84 78 71 65 69 71 68 69 72 75 97 100 100
15 24 38 61 96 95 96 97 96 89 85 93 84 78 73 73 77 88 95 100 98 100 85 100 91 92 99 88 77 69 65 63 68 72 78 82 86 97
32 34 44 69 98 96 96 97 94 93 97 87 79 73 72 74 79 83 88 99 100 100 79 100 96 95 100 100 79 72 69 64 68 71 73 78 82 92
43 54 78 98 98 94 90 88 96 98 82 80 82 80 82 82 81 82 84 88 90 89 83 90 97 100 97 94 91 76 71 66 71 73 73 76 80 85
67 92 100 89 52 47 48 66 72 82 85 87 88 87 89 89 84 85 87 85 87 78 80 88 98 100 96 99 100 88 91 73 70 76 77 78 80 91
79 89 71 50 46 50 58 74 81 85 92 96 94 92 89 89 90 91 93 93 95 80 78 84 87 98 99 97 100 100 88 99 79 74 80 91 93 94
96 56 45 43 45 55 74 81 83 86 88 91 94 93 92 95 92 90 92 93 98 93 84 73 83 93 94 94 99 86 85 82 78 83 99 99 94 82
55 49 47 53 59 72 84 84 83 86 91 96 93 94 97 96 93 90 96 98 97 92 89 84 92 88 81 85 90 91 80 85 83 91 100 100 93 81
52 52 55 60 69 85 91 91 87 88 95 95 94 95 96 96 96 94 96 98 96 94 90 94 99 99 99 100 86 99 96 88 93 95 100 100 100 96
55 59 62 66 83 92 92 92 91 92 94 91 95 97 97 97 96 98 98 99 97 95 98 92 93 97 99 99 100 77 78 95 96 94 94 96 99 92
62 65 69 79 92 93 92 94 96 95 98 99 96 97 97 97 95 98 99 98 100 99 97 90 89 99 100 98 98 86 72 81 94 98 97 97 93 95
72 69 73 91 94 94 94 97 94 93 96 98 96 97 96 98 98 98 99 98 97 98 96 91 92 96 96 100 98 93 92 80 76 78 77 94 99 98
76 76 90 93 95 93 97 97 95 93 99 99 97 96 95 95 97 96 97 96 97 96 97 93 90 92 92 98 100 97 95 91 92 85 72 74 89 98

GFSNE_850_rhum_060.txt.gz
RH
23 23 20 21 22 24 25 26 32 43 36 26 26 24 25 26 27 36 41 41 38 41 92 95 95 94 92 90 98 98 98 98 99 98 99 98 98 98
22 22 22 22 25 27 27 28 30 38 56 34 27 26 29 31 38 45 39 43 45 49 81 98 98 97 96 94 92 97 98 98 99 100 99 100 99 98
24 24 25 26 27 27 26 28 30 38 48 42 40 43 47 45 46 44 38 43 47 42 77 97 99 99 98 99 100 100 100 99 100 100 100 99 99 99
25 27 28 26 25 25 27 28 30 35 49 60 61 67 78 72 74 60 56 43 48 50 55 96 94 98 100 100 100 100 100 100 100 100 100 100 99 99
27 28 25 22 20 22 25 28 37 48 61 76 82 87 86 78 71 71 68 54 55 60 68 64 62 87 98 100 100 100 100 100 100 100 100 100 100 100
27 23 19 17 18 21 27 40 55 69 75 86 92 94 88 82 80 86 73 62 64 67 67 68 75 78 77 70 63 67 65 92 100 100 100 100 100 100
20 17 15 14 16 26 56 63 78 83 89 96 96 90 90 90 84 74 83 78 82 73 76 81 74 70 57 60 62 62 58 96 100 100 100 100 100 99
16 12 10 11 17 28 37 46 88 93 96 94 95 96 93 85 74 87 94 97 100 75 85 82 70 71 63 63 64 63 78 99 100 100 100 100 100 99
12 10 10 15 25 26 35 65 86 88 93 94 96 89 85 74 95 96 97 100 99 73 86 95 71 66 64 64 60 59 60 68 97 100 100 100 100 100
11 13 20 21 22 38 82 93 95 93 93 90 90 91 96 93 97 98 98 97 92 82 78 100 77 74 74 66 59 58 60 64 95 100 100 100 100 100
15 20 20 24 32 88 96 98 98 92 82 79 81 96 98 96 87 96 88 98 94 89 73 92 83 87 77 68 60 61 64 67 68 67 77 96 100 100
14 18 23 30 54 97 98 98 97 82 89 97 86 77 72 74 77 85 93 100 100 99 87 97 92 96 98 90 81 69 63 61 64 67 69 75 82 99
20 22 28 50 99 98 97 89 79 97 99 85 75 75 74 74 77 82 86 94 99 99 82 98 98 96 100 98 88 68 70 65 66 63 65 70 78 83
29 38 55 93 98 55 42 45 92 93 77 79 79 78 83 80 78 82 87 89 94 91 85 93 96 96 100 96 94 76 72 70 69 63 69 73 72 75
51 77 76 59 44 41 44 56 75 82 82 83 87 86 86 86 85 85 84 84 86 81 80 85 96 96 100 98 99 87 82 66 65 68 70 72 77 75
66 45 42 41 41 46 53 73 79 84 89 94 92 88 86 88 86 87 86 90 94 81 76 84 89 97 96 94 98 90 75 98 72 69 71 79 76 88
54 38 38 38 39 49 71 79 81 84 86 90 92 89 89 92 89 88 91 92 96 92 85 77 84 93 93 90 90 76 76 78 74 78 88 97 96 92
39 45 44 48 56 72 82 81 82 86 90 93 90 93 95 94 94 92 97 97 96 92 89 84 90 90 83 83 84 78 79 86 82 90 100 100 99 88
46 50 54 60 70 85 88 88 85 87 92 92 92 96 96 97 98 93 95 97 96 92 87 89 94 98 97 100 79 95 96 85 91 91 91 97 100 92
52 57 60 68 87 91 91 92 89 90 93 92 96 99 98 98 95 95 96 97 95 93 96 89 90 95 100 97 98 79 82 96 99 98 89 87 86 82
56 59 68 87 93 93 94 93 92 93 94 98 97 98 98 99 96 96 96 96 99 98 98 92 90 96 96 96 98 90 79 88 97 97 94 97 90 82
67 72 86 93 95 95 94 93 90 91 91 97 100 99 100 100 97 96 97 98 95 96 95 91 91 95 94 99 98 95 90 87 85 92 96 98 98 97
82 91 94 95 95 95 95 93 92 91 94 98 99 98 100 98 96 98 96 95 96 96 96 93 89 91 94 97 97 96 95 94 94 83 73 79 90 99

GFSNE_850_rhum_063.txt.gz
RH
42 36 27 22 22 21 21 24 27 31 28 19 20 19 22 21 23 28 30 30 31 31 31 79 95 97 97 97 99 93 99 97 99 99 99 99 99 98
30 36 42 24 22 23 24 25 28 31 42 30 20 21 23 24 29 38 36 37 35 35 38 86 99 100 100 100 99 100 99 100 100 99 99 100 98 98
57 33 25 25 23 24 26 25 27 33 40 31 28 26 26 29 29 33 36 40 31 24 30 74 99 100 100 100 100 100 100 99 100 100 100 99 100 100
35 26 25 23 25 25 24 22 25 32 38 40 41 41 48 52 56 57 53 43 35 30 40 71 98 94 99 100 100 100 98 99 100 100 100 100 100 99
55 36 30 26 22 20 19 20 24 28 36 55 63 65 74 78 75 71 61 56 48 46 54 61 59 55 76 100 100 100 100 100 100 100 100 100 100 100
39 34 26 20 17 15 16 17 28 43 56 67 71 89 91 82 79 84 87 67 71 64 56 66 62 64 69 64 69 61 63 60 97 100 100 100 100 100
33 22 18 15 12 10 16 25 44 57 61 78 96 94 96 95 94 84 78 82 80 70 55 74 65 66 58 60 60 60 58 59 99 100 100 99 100 100
21 17 13 11 10 13 18 27 40 78 94 97 98 99 97 93 81 78 91 94 97 84 73 78 70 67 60 62 60 59 60 75 100 100 100 100 99 100
16 12 10 12 13 16 23 37 54 70 97 100 98 92 84 77 95 97 98 99 100 85 79 83 76 66 61 65 61 57 56 57 84 100 100 100 99 100
12 12 15 14 16 22 33 70 93 91 87 80 75 74 91 98 98 100 100 94 90 82 79 84 75 71 75 69 60 55 57 63 70 100 100 100 100 100
17 18 18 17 18 30 98 100 98 72 58 58 66 73 78 83 79 85 83 95 92 87 82 84 75 90 82 74 70 62 65 73 84 80 83 100 100 100
17 17 18 26 56 100 100 96 72 46 72 61 59 66 69 73 78 86 90 98 100 96 93 96 92 100 92 85 84 80 70 66 66 68 72 82 96 100
15 18 28 47 98 99 89 55 49 94 87 74 75 74 74 75 77 80 86 95 98 98 84 98 94 100 100 97 88 77 72 69 68 65 64 66 73 90
26 35 45 62 48 35 34 36 43 69 76 78 78 76 80 79 80 82 84 86 89 90 85 100 96 98 98 95 89 76 75 73 71 65 64 64 71 77
40 39 36 32 34 33 36 44 68 79 81 80 82 84 85 86 83 81 79 81 82 78 78 90 98 97 99 99 98 87 85 69 68 69 71 71 73 71
32 28 34 38 40 42 50 73 81 83 88 91 88 86 86 84 82 88 87 89 88 74 75 80 87 96 96 96 100 90 73 93 69 69 77 83 79 78
30 32 34 35 37 47 71 80 82 85 87 90 90 90 88 88 87 90 92 93 98 90 80 75 81 91 93 92 88 73 74 78 75 79 86 89 82 83
36 38 41 45 51 69 81 80 83 86 90 91 91 92 93 94 93 89 96 96 95 89 87 83 89 89 82 76 85 80 77 83 77 86 99 100 100 89
41 44 52 56 68 87 88 89 87 88 91 92 91 92 94 95 96 91 95 96 92 90 86 90 94 97 97 100 82 96 95 88 93 87 86 93 97 80
48 56 60 71 90 91 92 91 90 89 91 89 92 98 99 98 93 96 97 96 93 90 93 89 96 97 98 97 97 76 86 96 98 96 96 98 91 82
53 61 78 93 92 94 95 94 93 92 94 94 95 99 96 100 96 96 95 96 97 96 95 93 96 98 97 96 98 90 85 95 97 97 95 98 94 87
67 80 94 95 95 96 95 95 92 93 92 90 96 99 98 100 100 97 97 97 95 95 94 96 95 95 95 98 96 95 95 91 90 96 97 98 98 98
77 91 93 96 98 98 98 96 95 94 93 94 99 99 98 100 97 99 100 97 96 96 96 94 89 92 96 97 97 98 96 95 93 87 79 95 97 98

GFSNE_850_rhum_069.txt.gz
RH
100 100 99 87 52 64 52 69 51 61 28 24 23 22 22 21 18 19 20 19 16 20 21 21 23 62 95 97 98 96 100 99 100 100 100 100 100 100
100 94 59 54 58 55 51 49 40 32 28 28 26 23 20 17 17 20 20 22 28 28 24 21 42 96 98 96 95 97 100 99 100 100 100 100 100 100
81 57 55 57 53 63 56 50 63 78 89 43 21 18 14 14 16 15 17 25 27 22 16 18 29 76 91 97 97 100 100 100 100 100 100 100 100 100
62 53 59 66 86 96 93 99 84 38 23 20 16 15 14 15 18 23 27 29 26 19 18 32 45 48 60 97 100 100 99 100 99 100 100 100 100 100
56 66 90 93 96 99 95 90 78 23 22 21 24 22 20 20 34 33 30 20 19 25 40 47 49 53 52 54 98 100 100 99 100 100 100 100 100 100
83 84 98 100 100 98 70 28 19 15 15 21 26 43 42 33 51 57 78 42 52 44 45 51 52 53 52 56 58 56 56 56 58 89 100 100 100 100
87 100 100 98 42 19 15 14 15 16 18 33 50 56 63 92 96 73 74 94 72 51 56 65 52 55 52 54 54 56 57 56 62 99 100 100 99 98
100 99 74 24 18 17 20 22 19 17 50 62 75 80 97 68 54 87 97 99 100 64 73 93 65 62 57 61 60 55 53 56 71 100 100 100 99 100
42 21 19 21 20 18 18 16 22 40 61 77 80 60 54 46 82 90 89 91 86 65 78 95 65 70 66 62 56 53 54 56 58 98 100 100 99 95
21 22 23 17 16 16 24 46 42 43 50 46 42 45 62 86 100 100 91 89 91 72 83 98 64 72 69 63 57 55 58 59 60 96 100 100 99 98
20 17 15 14 18 27 72 66 44 32 35 37 47 51 64 68 73 81 81 90 86 74 75 86 74 84 69 60 62 61 65 64 65 66 70 86 100 100
16 14 15 21 24 68 81 52 42 36 40 31 52 61 66 69 77 83 86 90 91 93 84 97 79 88 100 80 79 72 64 61 61 65 66 70 75 100
16 19 22 23 27 30 35 34 36 70 41 63 65 67 71 75 76 80 85 90 95 95 80 100 91 86 100 96 77 70 72 64 66 65 67 67 67 72
22 23 25 26 26 28 29 32 36 49 72 72 73 75 76 75 76 81 82 84 91 90 83 90 96 94 99 95 90 75 75 71 74 71 69 72 76 79
24 25 26 28 29 31 36 44 65 78 79 79 79 80 82 83 84 81 80 80 76 75 77 82 87 90 98 97 98 80 81 72 70 71 77 80 78 80
24 28 30 33 36 38 48 74 82 83 84 84 84 82 82 85 85 87 82 84 77 68 75 78 85 97 95 91 92 82 74 95 72 76 83 88 88 89
28 32 34 34 38 47 72 81 82 85 86 86 85 85 87 89 86 86 87 88 92 83 74 73 83 89 87 84 82 76 81 81 79 88 95 89 80 80
37 37 38 43 52 73 80 80 84 88 90 90 90 92 94 91 87 82 93 93 90 87 85 81 82 86 88 95 87 88 87 86 87 98 100 100 91 86
41 42 47 57 75 85 85 84 86 90 92 93 94 94 96 94 92 91 88 89 91 92 90 87 96 100 100 100 92 96 95 92 95 90 93 95 100 81
43 44 56 79 88 88 87 87 88 90 93 94 92 95 99 99 93 95 97 94 95 96 94 86 92 100 98 98 100 69 86 95 100 96 87 92 87 82
42 47 71 87 89 88 89 90 91 92 94 97 97 97 95 93 95 99 100 93 99 97 97 90 90 96 100 100 100 92 76 85 96 96 94 97 86 83
44 46 75 87 89 89 90 92 91 93 93 94 95 96 95 96 97 97 96 98 98 96 93 93 100 100 100 100 97 87 78 75 77 87 95 98 98 97
45 42 68 83 86 88 90 92 94 94 97 96 94 95 97 98 93 99 96 96 99 98 100 99 100 100 100 98 99 89 79 74 74 76 69 85 96 96

GFSNE_850_rhum_072.txt.gz
RH
100 100 99 98 99 93 95 77 38 47 62 66 54 50 31 28 28 27 15 15 12 10 9 11 12 13 14 56 88 95 97 95 94 97 100 98 100 100
100 100 100 99 98 96 81 73 75 76 86 60 47 80 87 99 60 20 19 16 13 13 12 14 12 13 50 91 96 98 98 96 95 99 98 100 100 100
100 98 92 78 77 69 72 76 76 72 80 98 100 98 72 22 16 20 19 20 19 16 13 14 16 26 68 77 88 98 97 100 100 100 100 100 100 100
100 98 91 82 73 76 71 90 99 100 100 95 71 35 24 16 13 14 19 18 17 10 13 26 38 42 43 43 53 89 100 98 100 100 100 100 100 99
93 76 70 68 73 86 98 100 100 99 56 34 27 21 22 23 30 59 44 34 33 18 36 42 42 45 44 46 49 58 73 84 90 98 100 100 100 100
76 65 72 90 98 100 99 87 34 22 33 29 30 62 84 88 96 86 84 75 75 54 56 50 47 44 44 47 47 47 48 50 54 56 83 99 98 100
82 88 94 100 98 99 77 20 17 21 24 31 94 93 94 86 85 83 82 86 87 82 77 81 76 74 58 49 46 47 49 51 53 76 100 100 100 100
95 100 100 98 35 16 17 19 19 32 95 99 99 97 87 85 82 86 96 100 98 65 94 98 86 89 70 54 48 47 49 50 57 98 100 100 99 96
98 69 21 18 18 19 17 19 25 42 62 84 92 90 88 83 83 92 100 100 100 96 100 100 68 86 73 72 54 50 51 50 52 56 88 100 100 100
22 20 19 16 15 18 23 38 41 63 49 49 60 57 68 91 100 100 100 100 100 92 97 98 72 92 87 77 62 56 55 58 59 59 80 100 100 99
17 15 16 18 21 25 92 65 47 32 32 28 36 42 52 65 71 78 89 100 94 70 76 100 85 97 81 61 66 68 63 61 64 65 68 81 99 100
16 19 21 22 27 42 29 31 29 29 35 38 52 63 66 70 74 78 81 83 89 97 88 98 86 97 100 74 76 71 66 68 70 70 67 69 73 100
20 22 22 21 22 23 26 31 32 32 64 59 69 70 72 74 76 79 84 89 92 88 76 100 96 92 100 100 79 74 73 68 78 76 81 74 70 75
21 22 24 23 22 24 26 28 32 42 65 70 70 71 73 74 76 78 80 84 89 86 78 88 92 88 92 91 90 74 72 70 75 70 73 76 78 77
23 24 23 24 25 26 28 33 50 71 74 75 76 76 77 75 74 76 76 77 78 76 75 79 85 86 95 96 93 75 77 68 69 73 76 86 91 91
24 27 28 29 28 31 38 61 76 80 83 83 82 80 79 78 80 82 80 78 76 70 75 79 84 91 91 88 95 81 72 98 77 80 90 94 93 92
29 31 33 33 37 49 72 80 83 85 86 87 86 84 82 84 84 86 86 84 86 78 72 73 84 100 98 94 75 82 80 86 85 92 100 100 96 90
34 36 37 42 55 76 82 83 85 87 88 88 87 87 86 88 88 89 94 96 92 84 82 77 81 89 99 100 96 94 98 100 99 100 100 100 96 92
37 38 41 56 79 86 85 86 87 88 89 89 90 91 93 92 94 91 94 100 100 95 97 98 100 100 99 99 98 98 98 97 98 91 91 100 100 73
39 38 45 68 84 85 86 87 88 89 91 91 91 94 97 100 96 100 100 99 96 100 100 99 100 100 98 97 98 85 90 94 93 92 89 89 87 80
41 40 45 70 82 84 86 87 88 91 94 93 93 93 96 99 100 100 96 93 98 99 100 97 92 100 100 96 98 97 80 86 96 96 92 97 88 82
42 41 39 62 77 82 84 84 85 90 93 94 94 95 96 100 100 99 99 99 95 97 97 96 98 98 96 97 99 98 82 77 79 78 79 94 97 96
40 41 37 50 73 78 80 81 84 89 95 97 96 96 96 100 100 100 100 100 100 97 100 98 94 97 99 98 96 95 94 81 80 79 75 89 95 96

GFSNE_850_rhum_075.txt.gz
RH
100 100 99 100 100 99 96 91 86 90 96 96 81 68 67 78 66 68 67 75 92 45 10 9 9 9 8 9 18 32 84 97 97 96 96 98 100 100
100 100 100 100 100 100 100 99 95 92 90 89 87 87 76 75 92 98 97 68 17 13 10 11 12 11 12 16 50 96 100 99 99 100 100 100 99 100
100 100 100 98 100 98 94 97 97 90 89 92 84 86 97 100 97 55 22 20 18 15 14 15 12 14 24 52 74 92 97 100 100 100 100 100 100 100
100 100 100 100 100 97 94 90 82 83 97 100 99 100 89 28 15 16 17 16 27 16 20 14 15 37 39 43 72 76 90 98 98 100 100 100 100 100
100 100 100 96 87 78 76 90 99 100 98 92 44 23 20 18 24 39 51 40 39 25 31 46 44 50 44 48 48 47 49 50 70 87 92 97 98 100
99 88 74 72 78 94 99 99 97 87 52 23 22 25 31 48 75 81 79 74 44 31 48 54 63 66 65 61 46 48 46 48 52 61 89 96 99 100
77 79 89 100 99 100 98 84 36 18 19 21 34 80 88 73 84 83 75 72 55 60 73 62 86 59 49 45 46 48 56 76 92 99 100 100 100 100
99 100 99 100 100 76 17 15 14 15 17 61 84 63 89 86 82 77 79 64 96 61 74 58 59 53 49 48 49 54 57 60 71 96 100 100 100 100
99 99 96 38 22 16 14 14 16 22 40 58 80 86 80 78 78 64 81 96 88 66 86 90 57 68 58 56 57 58 60 65 56 58 69 97 100 100
43 23 19 16 15 14 16 25 42 48 66 69 66 42 35 54 80 84 91 79 76 68 97 98 63 76 60 57 58 56 54 56 58 59 62 90 98 100
17 15 14 17 18 17 17 32 41 58 53 38 30 35 42 56 65 68 68 83 99 70 74 82 76 85 66 53 52 58 64 66 66 67 71 93 100 100
17 19 19 17 16 18 20 21 22 31 33 52 68 65 70 68 70 75 80 86 99 92 82 96 80 88 99 62 63 65 60 65 70 74 70 94 100 100
21 23 19 16 17 19 21 23 25 27 34 55 66 68 71 79 83 86 89 91 93 87 75 100 92 86 97 93 64 65 67 66 67 70 69 69 72 92
16 16 18 20 22 23 25 27 30 34 52 67 70 73 74 72 72 74 79 83 85 81 74 86 92 92 99 91 84 69 69 70 70 70 77 84 83 82
19 23 24 24 25 26 27 31 40 63 71 72 71 72 74 75 73 74 76 78 79 76 74 79 90 94 99 96 88 81 84 68 66 76 83 93 98 99
27 26 26 27 28 28 34 48 68 73 75 76 75 77 78 76 75 80 80 81 78 69 73 78 92 100 100 100 100 82 80 100 77 78 90 97 96 90
26 29 34 36 40 47 57 73 75 76 79 80 82 82 82 83 83 85 85 82 83 83 80 80 90 100 100 100 96 90 88 86 84 89 100 100 100 92
30 34 37 38 45 61 77 78 78 80 82 84 86 86 87 89 89 87 89 94 100 100 96 88 100 100 100 95 91 86 93 98 92 95 100 100 90 76
34 37 36 39 55 77 78 80 81 84 85 86 87 88 88 89 92 92 95 94 97 100 100 100 100 100 98 100 92 99 96 86 91 92 100 100 100 73
35 37 36 38 61 78 79 81 84 85 87 89 90 91 94 96 96 99 100 100 100 100 100 100 100 99 100 100 100 83 85 96 96 91 90 90 89 76
39 38 38 36 52 76 79 82 83 84 88 90 92 93 95 98 98 100 100 100 100 100 100 91 88 90 96 98 100 97 89 93 96 97 95 97 89 84
40 39 39 38 38 64 75 78 78 79 85 91 95 96 97 98 99 100 100 100 100 98 95 91 88 93 98 100 100 100 95 84 87 93 96 97 97 96
40 40 39 39 37 47 66 72 74 75 83 91 95 95 96 97 97 100 100 100 97 93 92 96 92 95 100 100 100 99 100 92 92 93 85 91 96 96

GFSNE_850_rhum_078.txt.gz
RH
99 100 100 100 100 100 100 99 91 91 94 95 94 94 99 96 94 93 85 76 70 77 94 82 22 9 11 9 7 7 10 59 96 98 96 97 99 98
98 100 98 100 100 100 100 100 99 99 97 98 96 95 98 95 97 84 86 97 100 89 23 11 11 16 22 10 9 23 79 96 98 99 100 100 100 99
100 100 100 100 100 100 100 100 99 99 95 100 98 98 92 88 97 100 99 67 23 14 12 14 13 15 15 27 49 65 85 96 100 100 100 100 100 100
100 100 100 100 100 100 100 98 91 88 93 94 96 100 100 99 73 31 18 16 19 20 26 20 28 46 56 62 72 73 80 96 100 100 99 100 100 100
98 100 100 100 100 97 92 86 96 96 100 100 98 75 37 20 20 26 30 33 35 28 25 22 28 41 41 58 62 68 79 96 100 100 100 100 100 100
99 99 98 91 81 85 98 99 100 94 86 61 27 16 22 43 52 47 59 62 36 25 23 34 46 44 45 48 46 47 49 58 94 97 97 97 100 100
95 86 84 94 99 100 98 98 80 28 18 15 19 44 62 58 78 79 73 51 20 28 50 47 56 49 47 46 48 53 58 94 98 97 100 100 100 100
93 95 100 99 100 96 41 28 19 19 16 19 26 47 51 75 72 61 48 35 49 55 60 43 53 49 49 52 57 59 66 85 99 100 100 100 100 100
100 100 98 91 74 45 20 16 23 27 29 31 34 43 40 42 37 30 35 49 54 57 74 53 55 59 54 55 56 56 59 70 64 73 96 100 100 99
47 22 21 17 15 15 18 22 27 31 39 38 34 29 31 29 34 44 60 64 62 65 80 66 60 64 56 56 57 56 59 61 66 83 94 100 100 100
17 15 15 16 15 13 12 15 20 30 32 34 29 35 36 53 66 70 66 77 65 59 66 76 74 82 60 50 54 58 59 64 65 65 66 78 100 100
15 16 16 14 12 13 16 18 19 23 24 25 31 47 60 62 69 76 81 85 98 87 82 85 78 92 92 59 60 58 60 62 64 66 64 66 93 100
14 14 14 16 18 19 20 20 22 23 24 30 52 62 67 72 76 80 84 89 82 82 84 100 100 90 100 91 62 61 64 63 65 65 66 74 78 90
14 17 21 22 22 22 22 23 24 27 40 62 67 69 70 71 71 72 73 77 83 82 77 92 100 98 100 98 93 65 65 65 70 68 73 77 80 82
18 19 22 23 24 25 24 26 33 51 66 68 71 73 74 74 73 72 73 75 78 78 77 81 99 100 100 100 100 92 85 68 72 75 76 82 82 82
19 22 24 27 28 28 34 41 59 71 71 72 72 74 78 77 75 77 78 80 79 72 75 97 100 100 100 100 100 87 78 99 73 72 82 86 83 76
23 25 28 30 31 36 44 63 71 72 73 77 77 79 80 80 79 82 84 82 84 85 80 89 100 100 100 100 92 87 87 86 87 85 91 94 82 79
25 28 30 31 32 42 61 72 72 74 76 78 81 83 85 86 84 83 87 89 92 93 99 98 100 100 99 83 84 90 99 96 82 88 91 93 82 77
28 30 30 30 32 47 69 70 73 76 79 80 81 85 88 89 92 91 94 99 98 100 100 99 95 99 98 97 79 87 99 89 96 93 90 90 96 79
28 32 33 33 32 43 68 72 73 75 77 78 80 85 89 91 90 91 97 100 100 100 98 88 87 88 100 100 100 79 89 100 100 95 92 92 90 80
33 34 35 35 34 34 54 70 74 74 74 76 80 85 90 94 92 94 99 100 100 98 94 87 84 86 97 100 100 97 86 92 98 98 96 98 97 89
32 34 36 36 36 35 35 56 70 74 74 75 82 89 94 95 95 95 96 100 96 95 89 84 86 90 91 100 100 100 100 82 75 77 85 97 98 97
30 32 34 35 37 37 35 39 56 67 72 77 90 95 97 96 96 98 100 100 94 92 86 88 89 93 92 95 100 100 100 93 89 82 66 80 93 94

GFSNE_850_rhum_081.txt.gz
RH
93 95 99 99 100 100 100 100 100 99 94 91 88 94 98 99 92 99 100 100 98 97 94 85 99 84 35 30 14 20 25 36 81 97 97 99 99 100
92 85 99 100 100 100 100 100 100 100 100 100 99 95 97 100 98 100 99 91 91 99 99 74 27 24 22 16 23 24 55 96 97 100 100 100 99 100
95 100 100 100 100 100 99 100 99 100 100 99 99 100 99 100 94 90 96 99 98 58 23 18 29 29 28 40 54 91 98 97 99 100 99 99 98 98
93 90 91 96 97 100 100 100 100 99 100 96 97 100 98 100 100 87 54 26 22 28 30 34 35 29 38 54 81 92 100 100 100 99 100 100 99 100
97 94 98 100 100 100 99 95 89 93 99 98 99 98 82 51 28 25 34 37 33 37 35 31 24 21 40 59 94 96 88 93 94 95 93 97 96 97
99 100 100 99 98 92 88 96 99 100 98 94 68 28 25 26 33 32 31 36 40 43 24 25 41 44 48 52 52 52 53 52 54 78 98 99 100 100
99 97 92 88 91 97 100 99 99 90 40 42 16 18 30 38 42 53 45 33 24 24 47 51 48 50 51 52 54 54 54 69 96 99 99 99 100 99
87 90 95 97 98 99 99 88 73 48 17 16 21 26 45 47 50 54 37 23 34 60 52 45 51 47 50 52 53 55 57 56 90 99 100 99 99 99
94 98 97 95 63 26 19 17 20 27 33 37 48 50 44 46 34 26 28 45 59 59 57 42 52 50 53 54 55 54 54 58 61 84 100 100 99 99
49 27 22 18 16 16 18 23 29 36 45 47 41 34 27 31 32 45 59 60 62 65 69 55 61 50 47 48 52 57 61 60 63 64 65 68 92 99
15 14 15 16 15 14 15 18 22 26 30 32 29 29 35 54 82 73 68 68 58 56 66 79 78 58 48 45 51 55 60 64 65 67 66 67 68 91
14 15 14 14 16 17 16 17 18 19 21 23 27 40 60 64 67 69 68 69 68 70 77 86 84 90 79 60 55 54 57 62 65 65 67 67 65 65
11 12 14 16 19 19 19 20 21 23 26 29 47 64 66 68 67 69 72 71 74 85 85 100 94 96 100 93 59 58 62 63 62 61 68 73 75 77
12 15 17 19 20 21 23 25 27 27 34 57 65 65 64 66 66 69 70 72 77 77 76 84 92 100 100 100 96 60 62 65 67 64 69 71 78 83
15 17 20 23 25 26 27 27 30 41 61 66 66 67 69 69 68 70 69 69 71 72 77 72 95 100 100 100 96 84 71 58 63 72 74 76 75 76
16 20 22 24 26 24 29 35 46 64 67 70 72 71 71 71 70 71 69 70 68 67 72 76 82 97 94 93 98 85 82 99 68 72 83 80 81 81
21 22 26 28 27 30 38 47 66 72 71 73 72 72 73 73 73 74 74 76 78 72 68 74 82 90 91 89 88 81 75 76 79 84 93 95 87 82
22 25 28 29 28 30 41 60 70 71 73 74 75 76 76 77 77 78 83 86 85 80 79 79 83 81 78 70 74 83 91 94 86 92 92 97 85 79
23 27 29 30 30 29 39 63 67 72 76 77 78 78 80 83 84 85 90 93 88 86 82 82 85 90 97 94 65 75 100 82 88 84 92 96 98 78
23 25 28 32 32 31 31 50 67 71 74 76 76 77 82 88 89 90 92 94 94 89 86 87 84 86 99 100 99 58 70 84 93 100 100 95 87 79
24 25 28 30 32 32 33 33 50 67 72 73 73 75 81 92 92 95 96 97 100 97 92 85 79 82 92 98 94 97 80 87 98 98 94 100 93 82
23 24 26 28 31 32 33 34 34 45 62 69 70 72 81 94 97 98 98 99 94 94 91 85 80 82 88 100 100 100 100 82 80 78 75 91 100 96
24 22 24 26 29 31 34 36 36 34 42 56 66 71 85 93 96 99 98 98 98 96 92 88 85 83 91 100 100 100 100 100 91 91 84 78 80 88

GFSNE_850_rhum_084.txt.gz
RH
85 85 81 87 99 100 98 100 100 100 98 98 99 96 91 91 95 96 100 100 100 100 99 100 98 98 98 97 72 61 93 96 89 95 98 97 97 99
96 90 89 89 87 87 99 100 100 100 100 100 100 100 99 99 100 97 100 100 99 98 100 99 99 85 49 34 52 65 93 94 96 98 98 98 99 98
96 95 90 99 99 100 100 100 100 100 100 100 100 99 100 100 100 98 98 98 99 97 64 38 34 30 47 77 87 92 96 98 98 100 99 99 98 98
97 94 91 91 94 93 93 95 98 98 99 100 99 100 98 100 97 99 97 64 35 36 42 43 48 48 27 23 33 85 98 100 100 100 99 99 99 99
98 97 93 91 91 90 95 99 98 95 92 98 98 100 100 99 84 44 38 39 44 42 49 42 27 16 16 28 41 51 72 60 53 52 58 89 96 97
98 97 92 94 90 95 98 93 92 96 99 98 94 55 74 82 59 44 42 45 46 40 28 16 29 39 44 46 48 50 50 50 51 52 73 93 98 100
88 89 92 96 92 91 93 94 96 95 93 85 78 50 30 41 43 41 41 37 28 16 25 41 44 48 50 50 50 52 53 54 55 69 86 99 99 100
86 88 90 93 95 96 97 95 78 49 27 18 16 20 27 32 35 35 31 19 18 42 44 42 46 44 46 51 55 54 54 55 55 68 78 99 100 99
92 93 90 89 81 56 24 13 13 16 20 22 28 34 32 30 29 26 25 29 52 53 53 42 47 48 53 54 51 50 55 58 60 72 83 91 92 96
52 36 31 23 16 13 14 15 17 22 28 30 29 30 26 26 30 35 53 59 59 60 56 51 52 46 46 47 47 55 57 62 65 65 64 62 64 77
13 13 13 13 13 10 11 12 14 17 23 27 30 32 32 35 68 65 60 61 64 63 63 65 56 44 40 48 50 53 60 62 64 67 66 64 62 62
12 12 10 10 12 14 13 15 17 19 21 23 25 27 35 55 58 59 62 66 68 68 69 78 66 67 54 45 47 54 58 61 63 64 64 64 66 69
9 10 12 13 16 19 20 21 22 23 25 24 26 39 57 61 63 64 65 67 67 65 71 82 71 84 92 63 45 51 57 53 52 57 64 71 73 75
9 12 13 16 19 21 23 24 25 24 26 32 51 63 64 66 66 67 68 69 68 67 74 84 80 73 81 74 64 49 59 56 51 52 63 67 73 78
12 14 16 19 22 24 25 25 25 30 38 57 67 68 67 68 70 69 68 68 68 70 80 83 80 76 86 82 80 65 66 58 49 56 62 69 72 70
14 17 19 22 23 24 26 30 35 44 59 67 69 68 70 70 71 72 71 70 68 67 82 84 83 84 81 88 90 69 68 80 61 66 75 71 75 77
18 20 22 23 25 25 27 35 43 60 67 67 68 71 73 74 75 77 78 78 78 74 72 79 84 86 84 86 74 71 71 70 71 72 77 72 64 65
18 20 21 23 25 26 27 37 50 66 66 70 73 75 76 76 76 77 83 85 83 82 82 83 81 80 70 60 65 74 78 78 77 84 86 92 73 65
18 20 21 24 26 28 28 28 46 66 69 73 76 77 77 76 77 78 85 89 86 86 83 85 85 89 94 81 68 82 93 84 83 80 89 95 97 68
18 19 20 23 26 29 30 29 28 50 67 72 73 74 73 73 74 78 83 87 88 84 81 82 87 93 96 93 95 59 75 93 99 100 86 84 84 76
20 20 19 20 24 28 30 32 32 31 40 60 67 69 71 71 71 80 88 92 96 95 93 86 86 91 90 96 97 70 64 78 99 100 85 96 95 98
20 20 20 20 22 24 27 30 32 33 33 34 45 58 64 70 72 82 91 95 94 94 93 90 88 85 85 91 88 87 76 72 82 75 78 87 100 100
19 21 21 19 20 21 23 26 30 31 33 34 35 40 51 63 72 86 95 96 98 96 94 93 90 88 84 85 90 94 100 98 89 76 68 78 87 91

GFSNE_850_rhum_087.txt.gz
RH
86 91 91 84 78 82 84 84 100 100 97 96 99 99 99 97 94 94 91 92 100 100 100 98 99 99 99 100 99 98 97 96 97 96 96 98 95 95
87 88 90 88 87 98 94 85 98 100 100 100 99 100 99 100 99 99 100 100 100 99 100 98 97 100 96 83 69 92 95 95 95 99 98 96 99 99
83 94 92 90 87 90 93 99 99 100 100 99 100 100 100 100 100 100 99 100 99 98 98 90 60 36 30 48 47 44 68 95 93 96 99 98 99 99
97 95 92 91 89 85 85 84 82 81 86 94 99 98 99 100 100 100 100 99 92 63 42 36 30 30 33 30 20 21 66 99 99 100 100 100 100 99
98 96 96 95 92 86 86 82 85 88 92 93 96 98 99 99 99 97 95 79 52 48 33 31 36 27 16 18 27 37 46 70 51 48 45 43 45 77
98 98 97 91 88 85 89 92 94 91 93 95 96 95 85 71 84 86 58 37 28 30 28 20 14 20 38 42 46 49 49 48 48 47 47 64 89 99
99 92 90 86 89 92 90 90 92 92 93 91 87 79 68 37 26 27 24 24 22 15 11 20 34 43 49 48 48 49 49 49 49 50 66 89 98 99
95 90 86 87 91 93 93 95 90 74 55 39 17 14 16 19 24 27 27 21 13 18 30 37 48 46 45 46 49 49 47 47 49 49 49 81 87 100
84 87 88 88 87 75 49 20 13 12 12 15 17 20 24 28 26 26 23 18 20 48 47 40 42 42 48 49 47 44 45 48 51 50 51 50 52 69
75 58 40 26 18 14 13 13 12 13 15 17 18 22 23 23 22 24 28 40 49 52 52 43 43 44 42 41 38 43 50 53 56 57 56 57 58 57
15 13 13 12 11 10 8 9 11 12 15 15 16 21 22 22 23 34 52 56 52 52 54 51 48 44 39 39 48 49 56 64 62 63 63 63 62 60
12 12 9 9 10 10 10 12 14 15 17 19 20 21 23 30 43 57 58 60 65 63 58 61 55 59 49 40 46 52 51 62 62 56 57 61 62 62
8 9 10 11 12 15 16 17 18 18 20 21 22 25 31 50 61 62 62 64 66 67 71 79 70 73 82 65 45 46 43 49 58 59 52 54 72 76
8 10 12 13 15 16 18 19 21 21 23 24 29 41 59 62 61 63 64 65 66 67 69 77 78 75 85 77 67 53 52 44 54 56 55 58 65 76
10 12 14 15 17 20 22 20 20 25 28 32 46 64 64 62 64 65 66 68 67 67 72 78 81 81 86 83 82 62 66 46 54 58 63 64 61 60
12 14 15 17 18 20 22 23 26 29 34 43 64 67 66 68 70 70 70 71 69 69 82 86 89 93 86 80 83 69 65 71 57 63 71 66 61 63
13 15 16 17 19 22 23 22 28 36 45 59 64 65 68 70 71 73 75 76 76 74 71 81 91 92 90 86 82 72 61 58 67 70 76 71 62 64
14 16 17 17 19 22 23 23 25 37 48 59 63 67 71 72 72 73 76 81 79 79 78 80 82 83 81 74 74 68 62 66 68 75 78 83 66 54
14 16 16 18 20 21 24 25 24 26 39 62 67 70 71 72 73 72 75 81 80 82 82 85 86 91 96 89 75 76 74 75 81 77 78 77 87 61
14 15 16 17 18 18 20 23 27 28 26 32 55 66 70 72 72 71 71 79 83 84 80 82 86 96 100 99 97 61 67 77 81 80 73 78 78 67
13 13 17 18 16 17 18 20 25 28 30 30 28 34 50 64 67 70 71 75 91 94 93 87 88 94 95 96 93 70 61 71 85 89 87 95 84 82
13 13 16 18 19 18 17 18 20 25 28 31 33 35 36 40 44 53 62 69 78 92 94 90 88 90 90 92 89 82 71 64 68 82 87 86 97 100
11 14 15 17 20 21 20 18 19 21 25 29 33 36 39 39 40 42 50 64 83 94 95 92 92 93 91 90 88 87 79 74 74 69 67 72 78 81

GFSNE_850_rhum_090.txt.gz
RH
81 84 87 85 78 89 92 94 97 100 99 96 98 94 86 99 98 95 95 94 93 90 93 99 98 98 100 99 99 98 99 100 97 97 95 95 97 99
74 83 92 83 79 85 86 85 96 99 100 99 98 95 100 97 95 97 98 97 97 99 99 99 97 98 96 97 98 80 49 50 89 94 95 97 96 98
86 81 83 84 86 89 88 84 90 95 100 100 98 93 89 98 99 99 98 99 100 100 99 98 95 86 52 30 26 25 25 26 46 94 95 100 99 99
92 90 90 86 90 89 89 84 80 80 82 82 86 93 99 99 99 99 99 99 98 98 93 59 56 45 30 27 26 19 14 18 29 58 55 56 62 94
96 89 87 92 92 90 90 83 86 80 84 86 90 95 96 97 98 99 99 96 88 80 54 31 26 26 23 15 12 21 28 32 36 39 40 40 40 52
94 96 98 97 95 90 86 85 83 86 88 88 90 93 97 96 81 78 86 69 38 24 22 19 16 13 12 23 33 38 39 39 40 40 40 41 60 96
98 99 96 95 91 90 88 90 88 87 89 89 89 87 80 74 54 31 24 20 20 16 11 11 18 28 34 41 43 43 44 45 46 48 49 57 87 100
98 99 93 90 89 88 90 91 88 84 72 46 36 23 16 17 18 21 20 16 13 12 13 30 42 43 44 45 48 47 46 47 47 46 50 58 65 71
96 89 88 89 86 83 75 48 24 14 12 13 15 18 20 20 21 19 16 14 14 23 36 39 43 44 46 50 44 40 42 45 47 51 51 52 53 54
85 86 76 49 26 15 12 11 11 10 11 13 14 17 18 18 20 18 21 24 36 48 51 47 43 42 45 40 35 36 43 48 52 54 53 54 54 53
35 18 12 10 9 7 7 9 10 12 13 14 15 17 19 22 18 23 34 51 49 52 54 53 45 41 39 38 40 44 46 50 49 55 56 52 47 48
11 10 8 7 7 8 10 12 13 15 17 18 20 22 24 26 29 39 53 55 56 55 53 57 50 48 45 45 43 54 54 49 52 49 56 56 51 44
7 7 8 9 10 12 13 15 16 17 20 20 21 22 24 31 44 56 58 59 58 56 62 62 54 54 59 54 41 46 50 54 56 47 53 56 56 61
8 8 10 11 12 14 15 15 17 17 19 21 23 26 37 56 59 59 61 60 60 60 62 67 65 63 69 70 55 52 57 58 59 48 54 62 63 64
8 10 11 12 12 14 16 17 17 19 21 24 29 38 57 59 60 61 61 61 62 64 66 69 71 73 79 80 80 64 67 60 59 55 58 63 63 61
9 11 13 13 13 15 18 19 19 22 24 28 33 46 57 58 60 62 63 65 63 68 78 82 86 86 81 80 83 71 70 78 64 54 63 63 60 62
10 12 13 13 14 14 15 17 20 23 27 32 35 49 57 60 64 67 67 69 69 67 69 83 92 90 86 84 81 72 75 73 65 61 66 62 54 56
10 12 14 15 14 12 14 16 20 22 22 28 35 46 58 64 68 72 74 74 72 71 72 78 84 88 84 74 75 76 77 74 64 64 69 71 56 52
9 12 13 14 14 13 13 14 17 21 22 23 24 36 59 66 71 73 75 75 72 72 72 80 86 95 95 89 72 82 84 79 76 69 72 74 74 56
8 11 11 13 15 15 14 14 15 17 20 24 25 26 28 38 56 66 72 73 72 71 67 68 79 97 100 100 95 68 77 83 79 74 72 74 71 66
8 9 12 12 13 16 18 16 15 16 18 21 25 28 31 34 33 34 39 48 58 62 66 64 78 98 98 99 95 81 73 78 82 82 79 83 76 74
8 8 10 12 13 14 17 19 19 18 18 20 23 28 31 36 37 38 39 41 40 44 51 61 77 93 96 98 93 88 78 70 73 78 80 86 89 100
14 9 9 10 12 14 14 17 20 23 24 24 25 27 29 30 34 39 42 43 45 46 51 66 85 92 92 95 95 91 84 78 73 68 64 70 72 79

GFSNE_850_rhum_093.txt.gz
RH
87 86 84 86 90 88 85 87 88 99 99 94 97 84 84 91 82 97 96 93 94 94 94 92 90 99 96 96 93 92 93 94 90 82 76 95 97 97
94 95 85 81 83 85 77 83 85 95 100 99 94 96 87 92 94 92 92 95 95 96 98 99 100 98 97 98 94 93 79 49 22 39 76 95 96 99
100 98 88 84 87 86 83 82 88 89 94 97 98 100 92 83 89 96 100 100 99 92 100 97 98 98 93 73 54 38 19 13 10 9 26 89 99 100
84 91 92 89 87 89 84 87 88 86 86 84 82 85 84 92 97 97 100 99 98 97 97 95 83 59 56 26 18 17 11 11 19 24 34 47 58 93
95 98 99 92 89 88 88 89 87 83 84 81 85 87 94 94 94 96 96 93 93 88 85 64 37 20 20 16 13 12 23 28 34 37 38 39 39 41
94 97 95 90 92 90 93 88 83 84 82 84 88 90 90 91 94 90 79 82 64 32 22 19 17 12 10 13 21 32 36 38 37 37 37 39 41 61
95 96 97 98 96 93 90 86 89 88 87 87 89 89 87 82 77 62 33 22 20 18 15 11 11 16 25 33 38 37 36 37 41 43 42 42 46 65
99 98 98 96 94 90 87 87 88 84 81 68 45 34 25 16 16 18 20 18 16 12 12 19 30 38 40 40 36 38 40 42 43 40 39 42 46 48
99 100 97 89 87 86 83 79 53 24 13 11 12 13 16 18 18 17 16 14 15 16 21 38 43 42 40 40 39 36 34 36 37 39 42 45 47 46
96 90 86 83 66 32 14 10 10 8 8 9 10 11 14 16 15 17 17 18 22 36 44 41 42 42 44 40 34 32 36 39 39 42 43 44 46 47
86 71 34 14 11 9 7 7 7 8 9 10 11 13 15 14 15 18 20 30 46 47 47 47 42 40 40 36 36 40 45 46 47 43 43 38 39 45
15 11 10 8 7 7 8 9 10 11 12 13 16 18 21 20 22 23 33 47 49 50 51 53 47 46 45 45 42 41 50 52 52 59 55 44 38 47
10 8 8 8 8 9 10 11 11 12 13 15 18 20 21 24 27 35 48 52 52 55 60 57 52 53 51 48 43 48 53 59 62 61 58 45 49 54
7 8 9 9 11 12 12 11 11 11 12 15 17 20 23 31 42 52 53 54 54 57 61 62 57 58 62 57 49 52 56 58 62 63 56 59 56 59
7 9 10 11 12 13 12 12 12 13 15 18 19 22 28 39 52 54 56 58 59 62 65 66 67 71 74 73 67 59 62 57 64 67 72 59 54 59
8 10 12 13 13 12 13 13 14 14 17 19 22 26 31 45 52 55 57 60 60 66 75 77 78 76 73 73 77 64 69 76 66 70 70 62 55 59
9 10 13 14 14 12 12 13 14 15 15 17 22 29 36 46 55 59 62 63 64 63 67 82 89 83 79 77 72 69 72 72 72 73 73 59 53 55
8 10 12 14 14 13 12 11 11 12 14 17 18 20 26 41 53 59 65 67 66 65 67 70 76 81 82 72 72 73 74 75 76 77 78 72 54 54
8 10 12 12 13 13 13 12 12 12 12 15 18 21 23 23 25 42 57 64 64 66 67 71 73 79 93 91 71 78 81 77 83 78 79 76 73 59
8 8 10 12 12 12 14 14 14 14 13 14 15 18 22 25 26 26 28 30 33 39 42 51 55 65 86 99 98 64 79 85 84 79 76 75 73 67
13 9 8 10 12 12 13 14 16 17 17 16 16 17 20 23 25 28 30 33 42 47 43 34 40 52 68 94 94 80 72 81 84 85 79 81 73 69
15 14 10 9 10 11 12 13 14 16 18 19 20 21 22 24 25 28 33 36 35 37 37 36 39 49 64 87 93 92 80 74 78 80 88 83 84 97
15 16 16 12 10 10 11 12 13 14 16 18 21 25 28 29 32 34 35 37 39 39 41 44 49 59 72 89 93 89 83 78 74 72 70 83 94 85

GFSNE_850_rhum_096.txt.gz
RH
80 94 96 90 82 84 83 90 94 100 95 89 98 95 92 84 84 88 89 94 94 95 93 95 98 100 99 91 96 93 92 89 88 87 78 54 93 98
100 100 95 94 92 84 82 80 80 90 99 99 96 97 94 92 88 92 94 90 89 92 92 94 95 97 99 95 92 90 88 77 48 30 29 58 95 95
96 99 99 97 96 89 85 86 86 84 89 98 100 96 92 95 88 85 89 97 99 99 99 92 98 96 93 91 80 68 52 26 16 14 31 95 99 100
80 99 99 99 98 91 91 91 88 86 91 98 94 88 80 79 84 90 97 95 99 97 91 92 94 88 78 68 40 14 12 10 8 14 20 29 54 66
100 99 100 100 98 97 93 90 88 86 86 83 82 82 84 88 94 92 93 91 88 86 89 85 82 56 21 12 10 9 8 16 27 32 33 33 32 33
99 100 95 99 99 95 91 88 88 89 85 85 84 85 89 90 90 89 92 86 79 74 42 19 15 11 10 8 10 14 27 35 34 33 33 35 36 38
100 100 99 98 93 93 92 92 89 86 87 86 87 89 89 89 88 80 72 45 21 15 14 12 9 8 10 17 27 35 35 34 35 36 36 38 38 37
98 97 95 96 95 96 94 90 87 88 87 83 83 80 64 47 27 16 16 18 35 12 11 12 10 18 32 36 35 33 35 36 37 37 37 37 37 39
96 98 98 97 97 93 89 87 85 82 58 26 13 12 12 12 14 15 16 14 14 20 14 20 33 39 37 36 35 35 33 32 34 35 37 37 39 38
97 99 100 94 90 86 73 41 17 10 8 7 8 9 10 12 13 14 14 15 18 20 29 44 43 42 39 38 35 33 31 33 33 31 32 32 32 33
100 97 92 84 54 18 9 7 6 6 7 8 8 9 11 11 13 14 16 19 44 45 45 48 46 43 41 38 35 36 37 42 44 46 46 44 45 42
91 76 30 12 9 6 6 7 8 8 9 10 11 12 14 14 15 16 18 26 46 56 50 52 47 48 46 43 43 40 38 38 46 49 51 55 53 50
25 12 10 7 7 8 8 8 9 10 10 12 14 16 16 16 17 20 24 42 49 53 55 54 52 52 52 50 46 48 50 52 59 60 58 58 57 48
10 9 8 8 8 8 8 8 9 10 11 12 14 15 17 19 22 27 39 48 51 53 56 57 58 57 59 57 52 55 56 57 59 60 60 59 59 62
9 8 9 9 10 9 8 8 9 11 12 14 15 17 20 21 26 38 47 51 53 56 58 60 61 63 67 68 64 59 61 57 65 66 69 66 65 64
8 8 10 11 10 10 9 10 11 12 13 15 17 20 20 24 31 43 49 51 53 56 60 64 69 70 70 72 75 62 64 73 66 69 71 67 69 67
9 10 10 12 12 12 11 11 11 11 12 14 15 18 23 26 30 42 48 53 57 60 65 74 75 76 76 75 73 66 65 64 69 70 74 70 68 71
9 9 11 12 13 13 12 11 11 11 12 12 13 15 18 20 21 31 43 53 59 64 68 73 75 75 74 70 65 61 65 70 71 76 78 85 65 68
9 8 9 12 13 12 13 13 12 12 13 13 14 15 17 18 20 24 23 23 27 30 38 51 60 62 65 70 71 62 60 64 80 85 85 88 82 66
13 9 10 10 11 11 12 13 14 14 14 15 15 16 17 19 20 22 25 27 28 28 27 28 32 37 47 56 62 40 55 74 86 86 82 82 82 74
15 15 11 8 9 11 12 12 13 14 16 17 18 18 19 20 20 22 24 26 28 38 34 30 37 40 42 46 48 45 57 77 88 88 81 83 83 80
15 15 15 13 10 9 10 11 12 13 14 16 18 20 22 23 24 26 28 30 32 36 36 36 38 41 44 52 56 66 76 76 77 78 77 80 86 97
17 16 15 16 16 13 11 10 10 12 13 15 17 19 22 24 27 30 33 37 41 44 46 48 51 54 59 68 82 87 79 72 72 72 70 72 72 70

GFSNE_850_rhum_099.txt.gz
RH
87 92 97 100 100 100 100 87 83 97 94 94 88 78 92 92 90 88 85 85 89 91 95 97 96 96 96 98 99 93 90 90 88 88 86 77 53 76
66 99 100 99 97 100 95 94 82 80 91 91 92 93 90 92 90 93 91 89 90 88 85 87 88 90 92 93 97 91 87 85 81 65 48 29 22 76
54 98 83 96 100 99 97 93 84 85 85 85 93 100 94 95 96 94 89 84 84 89 91 90 93 91 88 90 86 81 72 64 42 20 10 9 20 46
73 100 95 98 100 98 96 94 86 89 87 86 96 100 99 87 82 82 85 89 90 91 94 90 88 88 84 82 80 68 28 12 9 7 7 11 18 34
90 99 100 99 100 100 99 97 93 91 91 90 91 84 84 85 87 87 92 88 88 86 83 86 86 82 71 37 15 10 8 7 8 15 26 31 32 31
98 99 99 100 98 100 100 97 93 91 89 86 87 85 86 86 90 92 87 88 88 81 77 62 28 12 10 9 7 7 9 15 27 32 31 30 32 34
99 98 99 99 100 96 98 92 90 90 90 88 87 86 87 89 89 85 88 81 62 24 14 12 9 8 7 8 10 14 26 31 30 31 34 35 34 33
97 99 99 99 96 96 92 91 94 90 89 89 88 89 86 82 78 66 42 19 23 20 12 9 8 9 11 24 29 32 30 30 32 34 34 34 36 37
96 95 94 93 93 95 95 95 92 90 87 84 80 63 33 16 11 12 13 13 15 20 13 11 16 25 31 34 31 31 31 31 30 31 31 35 36 32
98 95 98 95 96 98 94 90 88 82 58 24 12 9 8 9 10 12 12 13 15 15 14 23 39 37 36 34 31 32 31 29 29 32 33 36 39 38
99 97 97 98 97 90 76 36 17 9 6 6 6 7 8 9 10 11 12 15 21 30 30 40 39 37 37 34 33 32 32 33 37 38 41 42 42 42
99 99 98 92 74 27 10 6 6 6 7 8 8 9 10 11 12 12 13 15 21 52 39 44 39 40 37 36 36 35 35 37 37 40 46 52 52 50
96 91 68 22 11 7 6 7 8 8 8 8 9 10 12 12 13 15 16 18 28 42 37 42 41 43 44 40 38 40 42 45 50 56 57 56 54 54
65 27 13 10 8 8 8 8 8 8 8 10 11 12 12 12 14 16 18 27 37 42 43 44 48 50 52 50 44 47 49 53 57 56 58 60 60 62
15 12 10 10 9 9 9 8 8 9 10 11 12 11 12 13 15 18 24 36 41 44 47 50 51 55 59 61 56 49 51 50 59 63 66 64 64 64
12 11 10 9 10 11 10 9 9 11 11 12 12 12 14 15 16 19 28 38 42 45 49 53 56 60 63 65 64 53 56 63 60 62 66 64 63 68
9 9 10 10 11 13 11 10 10 11 11 10 11 12 14 15 17 19 26 34 40 43 48 53 57 61 64 66 61 54 58 58 62 64 64 65 63 66
10 11 11 10 12 13 12 11 11 10 10 11 12 12 14 14 16 15 14 18 24 31 40 52 60 58 56 50 46 36 40 46 53 56 64 76 65 62
16 13 9 9 11 13 12 12 12 12 12 12 13 13 14 15 16 16 17 18 19 21 24 29 31 37 52 39 30 37 40 42 44 51 67 75 79 63
18 16 12 9 9 12 12 11 12 13 14 14 14 15 16 16 17 18 20 22 23 24 25 28 32 39 48 48 44 34 41 46 54 64 72 76 73 69
16 16 15 14 10 10 9 11 13 12 13 15 16 16 17 18 19 21 22 24 24 26 28 31 37 50 53 46 47 43 50 60 75 82 79 79 71 68
18 16 15 15 16 14 10 10 10 11 12 13 14 16 17 19 21 23 24 26 27 30 32 37 42 45 47 50 53 59 64 69 72 74 77 77 81 92
20 18 17 16 16 16 16 15 11 10 10 12 13 14 15 17 20 23 25 27 29 33 39 46 54 60 62 65 70 77 78 72 70 68 67 72 71 68

GFSNE_850_rhum_102.txt.gz
RH
67 77 94 100 100 100 99 100 97 100 91 83 84 80 82 83 98 95 91 87 81 87 98 97 95 97 97 98 96 92 94 94 88 89 84 78 74 59
83 98 99 99 100 99 99 94 98 100 100 89 81 82 82 89 94 92 86 87 86 88 92 92 87 87 86 90 88 84 88 91 88 80 73 66 41 23
45 44 73 89 98 99 98 100 100 100 96 86 87 86 87 100 100 92 89 83 83 83 86 90 91 88 92 91 79 84 84 79 74 54 25 11 8 10
38 43 51 67 97 99 100 88 94 100 93 88 88 90 96 100 100 91 89 83 84 89 94 89 96 88 88 87 83 82 78 45 16 9 6 6 7 12
53 62 62 99 91 83 96 94 100 97 96 93 90 90 90 89 92 90 86 85 92 88 87 87 86 85 82 73 41 17 10 8 6 6 8 19 28 29
66 75 97 96 100 100 100 98 99 100 97 95 92 88 88 89 88 87 89 92 88 86 84 80 69 38 15 11 9 7 6 7 9 19 28 28 27 28
98 100 99 100 98 98 99 100 99 94 90 90 87 90 89 87 86 87 88 88 84 66 34 15 11 10 9 8 7 8 10 19 28 29 28 29 30 30
98 98 98 94 92 100 100 98 92 93 92 92 91 87 88 86 86 85 84 73 45 13 12 13 8 9 10 10 16 28 31 29 28 29 30 30 30 30
97 97 95 95 99 96 94 92 91 92 93 89 90 89 85 81 67 37 22 13 12 12 12 11 10 14 17 25 31 31 29 29 30 30 29 29 31 30
93 95 97 90 92 94 92 94 94 93 89 86 82 69 33 15 12 10 10 10 11 11 11 12 12 22 30 32 31 30 30 30 29 29 30 32 35 38
100 100 98 99 92 99 95 93 90 87 69 38 15 8 6 7 8 8 8 9 11 12 18 19 21 32 34 34 31 31 31 31 31 33 35 34 37 40
100 100 100 100 98 97 88 56 24 10 7 6 7 7 7 8 8 8 9 10 12 14 21 31 31 35 34 31 32 33 33 33 34 36 39 40 47 48
100 100 98 100 88 53 19 8 7 7 7 8 8 8 9 10 10 10 11 11 12 16 29 38 36 38 38 34 35 38 38 39 43 47 51 52 52 53
100 98 88 47 18 9 8 7 8 8 8 7 8 9 9 9 9 10 12 14 18 30 33 39 43 43 41 37 38 40 44 49 50 51 53 54 57 58
87 51 23 15 11 10 10 8 9 8 8 8 8 9 9 9 10 12 13 17 26 33 38 41 43 47 46 43 43 42 42 43 50 53 59 55 52 53
26 18 15 13 10 10 10 10 9 10 10 9 9 10 10 10 12 12 13 19 26 34 37 40 44 46 48 48 49 44 48 50 49 53 55 47 43 47
19 16 13 11 10 10 11 12 11 11 10 9 9 10 10 12 13 12 12 14 18 23 28 33 37 40 42 40 34 36 37 36 42 36 39 38 38 51
18 13 10 10 11 12 14 14 12 11 11 10 10 11 11 12 12 12 12 13 13 14 14 16 18 21 21 20 25 26 28 32 37 38 40 47 47 52
18 13 11 11 10 11 12 13 12 13 12 12 12 12 13 13 15 14 15 16 16 17 18 20 21 25 28 25 27 34 38 43 42 44 50 58 64 61
20 19 17 14 10 8 10 12 12 12 12 13 14 14 14 15 16 17 17 19 19 20 20 22 25 30 38 42 38 36 47 50 51 58 66 68 65 60
22 19 18 17 15 14 10 10 11 11 12 13 13 14 14 15 16 18 20 21 22 23 23 25 35 41 43 50 52 43 49 57 65 73 73 68 61 56
29 23 19 18 17 17 17 16 13 10 9 11 12 13 14 14 14 17 20 22 24 25 25 27 33 40 47 52 53 58 57 60 70 73 72 76 77 81
86 34 26 22 20 19 18 18 17 15 14 10 10 11 13 13 14 16 18 21 24 26 27 28 32 41 49 59 66 65 65 66 69 64 59 68 72 74

GFSNE_850_rhum_105.txt.gz
RH
80 80 74 62 64 76 97 100 99 100 97 89 100 91 79 77 76 78 96 93 94 92 91 84 91 100 100 96 99 100 95 90 88 90 88 81 74 73
79 93 82 61 62 86 97 99 99 100 96 100 88 87 80 78 80 90 93 81 84 89 92 86 93 97 92 88 87 87 90 82 83 87 85 74 70 52
89 81 63 50 46 82 100 86 95 98 95 100 100 92 86 84 91 98 99 91 86 84 87 88 89 91 91 90 90 92 79 82 81 78 74 40 14 8
48 41 36 37 41 55 68 92 100 94 99 99 100 95 91 92 99 98 99 92 88 86 88 92 94 90 94 91 87 86 82 81 74 33 10 7 6 7
45 44 43 45 49 56 72 98 100 100 99 100 100 94 95 95 95 92 90 92 90 91 95 93 90 87 86 85 83 78 47 16 8 6 6 6 16 26
52 53 56 60 69 93 99 90 98 100 100 100 100 100 95 97 93 93 94 89 93 93 89 87 84 82 74 46 17 10 8 7 6 8 17 25 26 26
63 66 70 86 94 98 97 99 100 99 100 100 100 95 93 88 89 89 90 92 93 88 83 65 37 16 11 10 8 7 7 8 15 27 28 27 29 30
82 87 92 96 96 97 100 100 100 97 97 100 93 90 89 90 90 88 91 91 87 70 33 16 12 9 9 9 9 13 21 28 29 28 29 30 30 30
93 94 95 95 95 96 95 98 100 100 98 94 92 91 92 88 88 89 85 77 57 24 15 13 11 11 12 15 20 30 32 30 29 30 30 29 30 30
84 86 92 95 96 96 97 97 98 98 92 91 92 91 92 88 84 50 21 17 14 13 13 11 10 15 22 30 32 32 31 30 29 30 29 31 32 34
78 89 97 100 100 97 95 91 91 93 94 94 89 86 69 32 13 9 9 10 11 11 12 14 15 24 32 32 32 31 31 31 31 32 33 36 36 34
95 99 99 100 99 99 98 96 95 93 87 76 46 18 8 6 7 8 8 8 9 10 12 18 22 30 33 32 34 34 34 33 34 35 37 39 37 39
99 100 100 100 100 100 98 85 51 23 12 9 9 9 9 8 9 9 9 9 9 9 16 21 29 33 34 35 36 35 36 38 40 43 45 48 50 51
100 100 99 100 97 76 48 18 9 8 9 11 12 10 10 10 10 10 10 10 11 10 15 22 29 32 35 36 39 37 41 45 46 47 49 50 52 54
100 99 98 83 36 20 11 11 9 10 11 12 12 10 10 11 11 10 10 12 14 17 22 29 33 35 37 36 37 39 40 44 46 44 50 51 47 42
99 96 49 24 18 15 12 11 12 12 12 13 14 11 10 11 11 10 10 12 15 20 27 32 34 36 36 36 36 33 38 36 40 44 33 29 28 31
78 38 24 19 14 12 12 12 13 13 12 16 13 11 12 11 11 11 11 12 13 16 22 28 29 29 27 26 23 23 24 25 27 27 29 30 34 40
45 28 22 17 12 11 12 13 15 14 13 13 12 11 12 12 12 12 12 12 13 14 15 16 16 18 18 20 23 25 26 28 32 35 38 42 43 49
42 28 20 14 10 11 12 13 14 15 15 13 12 12 12 13 14 14 15 15 16 16 17 18 19 20 22 24 30 30 32 38 41 44 48 54 58 56
73 48 22 15 13 14 12 10 12 15 14 13 14 14 14 14 14 15 16 18 19 20 20 21 21 24 28 33 36 33 42 48 50 52 56 61 63 58
98 95 58 20 20 20 19 14 10 11 13 13 13 13 14 14 14 15 17 19 21 22 24 25 29 32 30 34 34 30 40 51 58 63 68 66 58 50
98 98 90 31 25 24 22 22 20 15 11 10 10 12 13 14 13 14 15 17 19 21 24 26 28 29 31 33 33 35 37 49 62 71 77 76 72 71
98 98 99 89 38 29 26 23 21 19 19 17 14 11 11 12 12 14 14 15 16 19 22 24 28 30 31 33 36 34 38 48 58 60 60 72 72 70

GFSNE_850_rhum_108.txt.gz
RH
91 93 92 82 80 76 80 81 74 86 98 97 95 95 88 96 90 75 72 77 87 84 81 92 97 81 97 100 100 100 99 100 90 89 80 83 83 75
86 81 74 80 77 80 80 72 68 76 98 99 92 97 94 98 86 79 82 84 91 83 80 84 89 84 98 99 99 89 88 84 88 84 80 82 77 73
82 91 98 98 97 89 74 83 85 97 97 97 99 99 91 98 90 87 92 89 92 91 91 84 85 92 91 91 89 88 87 92 85 82 79 77 60 26
95 93 81 64 51 44 45 50 54 89 86 90 100 99 99 100 100 98 97 90 97 96 89 87 88 89 90 92 94 95 90 87 83 81 56 16 8 6
56 52 50 48 46 51 56 59 78 75 100 99 99 100 100 98 99 100 93 89 92 88 91 89 94 94 94 94 88 86 84 81 58 17 8 6 6 12
50 52 54 56 56 56 60 72 80 97 100 98 98 99 100 100 100 99 96 93 99 94 93 94 87 86 87 85 81 65 27 11 9 7 6 9 22 25
54 57 61 67 76 83 89 94 100 98 99 99 96 100 99 100 98 93 93 100 95 90 94 87 81 74 60 37 17 10 8 7 7 8 19 25 25 26
59 69 80 86 88 94 97 95 100 96 100 100 100 100 100 97 92 90 95 96 92 86 88 81 63 22 15 12 10 9 9 12 16 27 27 27 27 28
69 76 81 90 93 94 90 90 96 100 100 100 100 100 96 91 92 95 92 91 91 88 60 22 14 13 11 10 11 12 23 30 28 27 28 29 27 28
72 74 72 78 84 90 96 97 99 100 100 100 99 96 91 94 94 96 95 94 86 65 36 18 12 11 12 16 18 26 31 30 29 30 29 28 27 29
74 78 79 85 95 99 100 100 98 93 95 96 96 93 95 93 93 91 74 42 25 16 14 14 12 13 18 25 33 32 33 31 30 29 29 30 31 32
82 88 96 96 100 100 100 100 100 98 99 98 96 95 90 74 44 19 13 15 14 13 11 15 15 20 33 33 35 35 33 31 31 31 32 34 34 34
90 98 100 100 100 100 100 100 96 83 68 54 40 25 14 8 8 9 9 10 10 10 12 18 20 29 36 36 35 37 35 34 35 36 37 40 41 42
95 98 99 100 100 100 100 93 80 44 18 12 10 10 10 10 11 11 13 12 11 12 15 26 31 35 36 36 38 36 36 38 41 42 45 47 47 48
95 99 99 99 99 84 53 20 12 10 10 11 11 12 14 11 12 13 14 13 12 14 15 16 23 29 34 36 37 37 40 43 44 43 46 47 49 49
98 99 99 99 78 32 20 15 12 11 12 12 12 14 14 11 12 13 13 13 14 15 19 25 29 31 33 34 33 32 36 37 37 40 40 36 34 27
99 99 97 77 34 21 17 15 13 14 13 12 13 14 12 12 13 14 14 14 15 15 18 22 26 28 26 23 20 21 23 22 26 29 26 25 29 34
99 99 84 75 27 20 16 14 15 16 16 15 15 13 11 13 15 15 14 15 14 14 15 15 14 16 17 19 20 21 23 25 29 30 32 33 34 42
98 98 74 65 54 21 14 14 14 17 21 17 14 14 13 14 16 15 16 16 15 15 16 16 16 19 20 20 24 26 27 30 34 38 41 44 42 43
98 98 96 78 44 21 15 16 14 14 16 16 15 14 14 15 15 15 16 17 18 18 19 20 21 21 23 26 28 29 28 34 40 44 46 51 50 48
99 98 98 98 95 46 21 20 20 16 14 14 16 15 16 17 16 16 16 17 19 21 22 24 26 30 30 31 34 32 34 34 39 48 54 56 53 44
99 98 98 98 99 82 32 27 26 24 21 15 12 13 15 16 16 16 16 17 18 17 19 24 30 30 29 29 29 30 31 32 37 49 59 62 60 54
99 98 98 98 98 98 92 32 27 25 23 22 22 21 18 14 13 14 15 16 18 18 18 19 26 29 28 29 29 32 32 32 32 33 47 67 65 54

GFSNE_850_rhum_111.txt.gz
RH
97 99 98 93 99 93 95 94 95 95 71 71 91 92 97 98 98 94 100 82 75 76 92 91 96 99 92 82 74 99 100 100 99 92 84 78 76 83
91 92 82 85 93 90 94 93 90 89 96 98 97 100 96 98 93 98 100 88 84 84 91 83 80 82 93 95 99 99 100 96 86 81 82 77 79 78
84 90 95 94 92 98 100 100 95 100 98 100 98 99 98 98 98 93 100 92 91 83 88 92 90 86 86 90 93 92 88 88 86 85 79 79 78 69
98 99 100 95 75 61 54 52 52 60 88 86 100 100 99 100 95 98 100 98 97 86 86 93 88 84 85 86 85 90 90 91 90 85 81 78 38 10
71 59 54 52 50 52 54 55 55 63 77 100 99 100 98 96 99 100 100 100 98 95 92 89 87 88 90 94 95 93 90 86 83 82 61 15 7 5
55 55 54 54 54 54 56 61 83 99 100 92 98 100 96 100 100 99 100 99 98 100 99 96 89 92 89 90 91 87 82 74 40 16 8 6 5 11
52 53 52 52 52 61 70 79 88 94 99 100 100 83 81 99 98 98 100 100 99 100 100 94 93 89 84 78 75 62 36 15 10 8 7 7 18 23
54 54 55 58 66 77 92 96 94 93 100 100 98 100 100 100 100 100 99 99 100 98 96 92 91 85 73 37 17 12 10 9 8 8 10 25 25 25
61 61 64 68 70 74 78 86 88 91 100 100 100 100 100 100 100 97 93 92 96 96 90 89 87 66 24 13 11 9 9 11 14 22 28 26 25 27
68 68 69 70 71 78 85 90 97 100 100 100 100 100 100 100 95 92 95 100 100 98 97 84 50 18 13 12 13 13 14 25 31 28 27 27 28 28
72 73 75 75 78 88 98 100 99 100 99 97 98 100 100 99 96 93 95 96 97 96 80 56 22 13 12 14 19 18 26 32 32 31 29 29 30 28
74 79 85 86 98 100 99 99 99 99 99 96 96 98 100 98 96 95 94 88 68 44 22 19 16 13 15 17 24 31 33 33 32 30 31 32 31 30
88 93 95 99 99 99 99 100 99 99 96 93 82 72 69 70 60 39 26 21 19 16 12 12 16 14 17 36 28 32 33 34 33 32 34 35 35 35
89 88 90 94 94 99 99 99 99 98 89 45 23 15 13 13 13 13 13 13 12 13 12 12 22 22 23 33 34 34 34 35 36 36 38 37 37 39
92 94 88 88 95 98 100 96 54 22 15 12 13 14 15 14 14 15 16 16 16 14 12 12 16 35 38 39 36 35 35 36 38 39 40 39 41 41
100 99 99 94 92 96 96 67 24 17 16 14 14 17 17 16 16 17 17 15 14 14 14 14 15 18 25 32 34 37 37 42 35 36 33 34 34 36
100 99 94 88 94 95 71 28 22 20 17 16 16 17 20 20 17 17 16 14 13 12 13 16 21 25 28 29 27 28 30 28 29 32 25 24 27 25
99 99 99 95 96 89 66 26 24 18 18 22 20 18 22 20 20 20 18 16 15 13 13 15 19 22 22 22 19 18 18 18 20 21 23 24 26 33
99 99 99 99 100 79 80 41 24 20 23 23 23 20 20 22 22 19 19 16 14 13 14 15 15 15 17 19 22 25 26 26 26 26 28 30 29 34
99 100 100 100 99 98 93 57 30 21 21 19 20 22 21 21 20 16 16 17 17 18 18 18 18 19 22 26 26 28 30 29 28 29 32 35 35 37
100 100 100 100 100 100 99 93 47 22 22 21 17 16 19 20 19 18 17 17 18 18 20 20 23 32 30 30 31 30 37 34 33 33 33 32 32 36
100 100 100 100 99 99 99 99 95 46 29 27 26 24 18 18 18 17 17 18 18 17 17 20 25 31 29 30 29 29 30 33 35 34 34 34 34 42
100 100 100 100 98 98 99 99 98 94 50 31 28 28 29 26 21 18 16 16 17 18 18 17 21 25 26 26 26 27 28 28 33 34 34 36 37 36

GFSNE_850_rhum_114.txt.gz
RH
85 88 100 98 94 100 98 92 96 99 95 91 82 81 96 97 100 99 100 98 98 90 80 74 79 97 97 99 89 80 76 98 93 97 94 83 79 78
80 83 88 97 97 97 98 99 99 99 100 98 97 89 92 85 96 92 92 100 97 92 87 84 91 98 94 91 86 75 95 100 99 95 81 81 78 76
75 82 92 99 100 99 99 99 97 92 93 88 96 100 98 99 98 93 100 100 100 97 91 82 78 94 92 86 90 95 98 99 91 87 85 82 78 75
99 99 95 83 60 56 56 56 61 62 68 68 96 93 84 97 100 99 99 99 98 98 97 85 83 96 90 83 82 81 86 91 87 88 89 83 80 68
88 62 54 52 50 50 48 47 52 54 63 97 99 100 99 99 98 99 99 100 100 100 98 89 86 89 84 85 88 92 95 93 93 88 84 81 63 13
53 50 49 50 50 49 48 49 51 60 82 99 99 99 92 97 100 100 100 100 100 100 98 95 88 94 92 91 94 95 96 91 85 79 62 30 9 6
53 54 53 53 54 54 53 55 60 78 88 98 100 99 100 99 95 97 100 100 100 99 100 99 96 97 92 88 87 83 84 83 64 30 11 7 6 6
59 59 59 59 59 61 63 67 72 81 88 89 93 98 99 98 100 100 100 100 100 98 98 99 99 97 92 84 76 58 29 16 13 9 7 6 9 20
65 66 67 66 64 65 65 68 73 78 82 96 99 100 100 100 100 100 100 100 100 100 99 93 98 96 91 82 57 21 12 11 11 10 8 12 25 24
65 67 68 71 71 69 70 75 80 84 81 96 99 100 100 100 100 100 100 100 100 100 100 98 94 86 68 28 14 13 12 12 15 18 25 28 25 24
72 72 71 74 78 76 78 87 91 96 92 91 95 96 97 99 100 100 99 100 100 100 100 100 96 77 35 17 16 16 17 17 28 33 29 27 25 26
79 78 80 87 92 99 100 100 100 100 99 97 96 96 95 99 100 100 100 100 100 100 99 93 70 33 16 15 16 23 22 26 34 33 29 27 26 25
86 85 86 88 91 95 96 98 99 100 100 98 93 83 80 84 90 95 94 91 89 72 40 14 17 18 16 22 21 24 28 34 34 32 29 29 29 29
93 92 90 87 78 85 91 94 98 97 95 88 66 31 20 17 15 15 15 16 16 16 20 23 18 15 17 18 33 26 28 32 33 33 31 31 32 33
96 99 98 95 77 80 90 99 97 84 37 15 13 14 14 16 17 16 16 16 16 16 16 16 17 19 26 23 24 31 33 32 33 33 33 34 35 37
100 99 99 90 80 86 92 96 90 47 22 16 15 16 16 17 21 20 21 20 20 18 18 17 16 20 35 37 36 35 33 36 32 33 33 33 36 37
99 99 99 96 88 91 96 92 62 31 24 20 17 18 19 19 24 24 22 20 21 20 19 18 20 19 18 18 23 28 31 31 34 32 28 26 27 27
99 100 100 100 98 98 100 93 74 31 27 25 23 24 23 24 29 26 23 23 24 20 23 19 18 19 20 22 23 24 22 20 20 20 19 20 21 24
99 99 100 100 98 100 100 97 87 58 34 22 20 21 23 23 27 25 25 26 23 22 22 18 16 18 19 18 19 24 25 24 24 24 25 26 26 31
99 99 97 99 99 100 100 99 100 90 51 24 18 18 18 23 24 21 22 20 22 23 22 20 19 18 18 22 23 25 27 31 30 29 29 30 33 35
100 100 100 99 99 100 100 99 99 99 95 47 18 19 17 15 18 22 20 19 19 18 19 21 22 31 30 28 30 28 30 32 34 35 34 34 37 44
100 99 99 100 99 100 99 98 98 98 96 93 39 29 59 42 24 17 18 19 19 18 18 20 22 27 28 28 27 28 30 36 36 34 33 35 36 37
100 100 100 100 100 100 98 97 97 97 98 97 87 63 37 34 35 30 27 20 18 17 17 18 22 24 22 20 22 23 24 27 30 31 29 32 37 45

GFSNE_850_rhum_117.txt.gz
RH
90 86 84 96 94 92 95 89 90 92 87 81 74 77 74 74 70 70 78 79 96 98 100 92 80 76 78 90 96 88 84 86 97 98 100 96 83 80
77 80 84 85 94 99 100 99 98 100 100 86 84 88 86 90 94 94 93 90 97 96 100 95 90 83 96 99 98 100 90 80 99 99 100 88 78 78
79 80 86 98 100 100 98 97 95 95 98 98 90 84 86 91 90 95 90 100 95 98 99 100 93 88 92 90 93 99 100 99 100 100 94 85 81 78
93 99 98 98 75 57 54 53 54 54 56 57 58 64 76 100 96 92 90 94 100 96 96 95 95 90 89 95 89 90 86 85 98 92 88 88 86 80
98 96 65 54 51 48 46 46 46 47 51 59 77 95 99 98 96 96 99 94 100 100 100 100 100 92 93 90 85 85 88 89 85 85 92 90 85 80
62 53 50 50 51 51 50 50 50 50 52 62 84 99 99 97 98 85 97 99 100 100 100 100 99 97 95 93 91 93 94 95 95 92 88 83 78 46
51 54 55 56 57 56 56 55 54 54 60 64 78 91 94 95 92 98 100 100 100 100 100 100 100 100 99 98 93 95 94 93 92 86 82 56 19 9
58 61 62 63 64 64 62 60 57 58 64 71 82 85 92 100 100 100 100 100 100 99 100 100 100 100 99 98 95 88 79 78 76 68 45 18 9 7
64 62 62 63 64 68 68 67 64 66 72 76 83 98 99 100 100 100 100 100 100 100 100 100 100 100 100 98 92 84 72 43 19 14 10 8 8 14
64 64 65 66 66 66 70 75 75 78 80 86 89 94 100 100 100 100 100 100 100 100 100 100 96 96 98 96 92 85 41 13 11 11 12 10 13 27
67 67 68 70 70 66 73 80 82 88 88 87 92 94 94 95 96 99 100 100 100 100 100 100 99 98 94 85 62 28 18 14 12 16 19 22 32 32
72 73 76 71 75 74 85 96 98 99 100 99 96 96 93 93 94 99 100 100 100 100 99 100 100 99 87 68 36 21 22 16 17 27 35 33 32 28
78 82 83 84 84 81 82 89 95 97 99 98 96 91 82 72 74 88 97 99 100 100 98 87 76 76 59 22 18 20 23 26 29 36 35 31 29 28
88 94 93 89 89 88 75 82 89 97 97 88 76 60 46 29 18 16 16 21 35 50 54 63 42 20 16 20 20 24 24 28 38 39 36 33 32 31
94 98 99 99 97 92 81 84 92 94 83 58 20 15 13 12 13 14 14 15 16 18 19 20 25 27 21 22 24 28 33 28 35 37 36 34 33 32
99 99 98 98 100 95 85 90 92 92 68 31 21 17 16 15 15 17 18 18 19 21 22 22 21 21 23 28 34 31 34 39 34 34 35 36 34 34
99 93 92 100 100 100 88 92 94 89 57 32 24 19 18 18 18 20 20 19 20 20 22 21 22 22 22 22 34 37 38 36 34 34 34 32 29 28
97 100 99 100 100 100 99 97 95 94 76 37 26 21 21 21 20 22 23 20 21 22 22 22 22 20 19 20 20 21 25 29 31 32 30 26 23 23
98 99 99 100 100 100 100 100 100 99 88 70 34 22 20 22 23 22 24 20 20 24 25 24 21 18 21 22 22 23 24 26 26 22 22 23 25 27
99 100 100 100 99 96 99 99 100 100 100 96 71 36 20 20 20 20 22 21 20 20 27 24 22 19 20 21 20 21 23 26 27 28 29 30 32 34
100 100 98 100 100 98 98 100 99 98 100 100 98 80 30 22 20 19 18 20 22 21 21 20 22 33 32 27 28 26 28 28 30 32 32 33 34 36
100 100 99 100 100 100 99 99 100 99 99 99 98 98 87 39 54 83 69 32 20 20 20 22 23 25 25 24 25 26 28 32 33 35 34 34 34 34
100 100 100 100 100 100 100 100 99 98 99 100 100 99 99 92 56 43 42 54 40 28 22 21 24 24 22 22 21 20 20 22 27 30 29 30 31 30

GFSNE_850_rhum_120.txt.gz
RH
100 100 94 84 95 96 89 96 84 93 80 76 79 81 81 79 79 75 71 70 66 81 75 91 88 92 83 81 90 81 80 77 82 90 96 93 97 92
93 97 79 77 81 88 94 97 97 100 100 100 100 98 99 97 95 97 90 88 85 97 96 95 100 97 94 89 98 95 95 90 90 89 100 100 97 81
89 80 79 81 94 99 98 98 97 98 98 95 94 93 90 87 85 88 97 92 96 88 100 97 99 100 99 100 99 100 100 100 90 99 98 99 93 83
77 80 84 92 99 86 62 55 54 52 54 50 51 46 49 52 66 77 99 98 100 98 99 100 100 100 100 100 93 96 100 99 100 100 100 93 90 88
91 99 98 96 60 52 48 48 47 47 48 49 50 52 56 63 86 98 98 91 90 100 100 99 100 100 100 98 92 97 95 92 94 89 96 95 92 88
99 98 69 53 50 51 52 52 53 53 53 53 54 57 61 75 91 95 97 95 98 100 100 100 100 100 100 99 97 98 93 95 94 98 97 97 93 87
79 54 52 54 56 57 60 60 60 59 57 58 61 66 76 86 92 93 99 100 100 100 100 99 99 100 100 100 98 100 95 97 98 99 100 93 86 76
52 54 58 60 58 57 58 62 64 63 63 63 67 69 75 87 97 100 100 99 99 99 100 99 100 99 100 99 100 96 97 94 95 94 90 85 71 33
60 61 59 59 60 61 62 64 66 68 70 74 72 73 72 87 99 99 100 100 100 99 100 100 100 100 100 100 100 99 95 87 79 70 51 34 29 17
62 62 62 63 64 66 66 66 70 75 77 76 77 77 80 88 97 100 100 100 99 100 100 100 100 99 100 100 100 100 96 88 77 38 17 17 14 11
64 65 67 67 70 72 73 71 76 80 85 84 83 84 87 91 93 94 98 100 99 99 100 100 100 100 100 100 100 97 95 83 31 15 13 16 19 17
70 70 72 75 77 81 79 77 80 89 97 99 99 93 90 90 90 91 96 100 100 100 100 100 99 100 98 98 97 87 68 37 20 16 16 22 24 33
75 75 77 80 83 86 82 82 79 80 90 97 99 94 92 84 70 63 74 96 100 100 99 100 99 100 100 90 41 31 42 29 23 21 22 30 38 42
79 82 85 90 90 90 89 86 79 78 86 96 88 79 65 51 36 24 18 19 30 62 88 96 95 92 37 29 31 21 22 25 31 32 30 36 39 36
86 90 94 97 98 96 93 83 79 83 92 91 78 42 23 16 14 13 14 14 14 15 16 20 26 32 37 30 24 22 23 32 32 34 35 38 41 39
83 87 93 98 95 96 98 90 83 88 92 91 55 30 20 16 15 15 14 16 18 18 17 18 20 21 22 26 25 29 28 38 29 31 37 40 41 39
80 82 86 87 90 98 99 96 89 89 92 89 56 32 23 18 18 18 17 20 22 21 19 18 18 20 21 24 25 30 35 28 37 39 38 38 39 39
83 82 86 96 98 98 100 99 99 95 97 94 82 45 28 21 21 22 22 23 22 22 23 22 21 21 19 18 20 20 32 38 36 37 36 36 34 33
97 93 94 99 100 100 99 99 99 99 100 95 88 81 45 26 22 23 24 24 23 23 25 26 26 24 23 20 20 21 22 24 25 28 30 30 28 27
99 97 99 99 99 100 100 99 99 100 99 99 100 97 81 49 26 22 21 23 24 24 23 24 25 24 25 24 22 21 22 24 27 28 27 25 25 28
96 97 99 100 99 99 99 99 100 100 99 100 100 100 100 93 57 26 23 21 21 22 22 21 22 27 32 29 29 26 25 27 27 29 30 31 32 33
92 94 98 99 100 100 100 100 100 100 98 100 100 100 100 99 99 76 38 46 70 55 30 23 24 25 46 27 22 24 26 30 34 34 31 32 33 34
97 99 100 99 100 99 99 99 99 99 100 100 100 100 100 99 98 98 88 51 45 48 74 60 32 25 22 22 20 18 19 20 23 26 27 30 32 35